GFSMA_sfc_thetae_000.txt.gz
Theta_e
323 321 315 311 308 305 302 300 298 298 296 296 296 297 297 295 297 301 303 315 317 321 326 324 325 324 325 328 330 329 329 328 328 327 327 328 328 330 331 332 335 336 337
313 310 309 305 304 301 298 296 295 295 293 293 293 294 295 293 297 296 299 300 311 315 317 318 319 319 322 323 323 324 323 323 323 323 323 323 324 324 325 328 330 330 331
309 308 304 300 298 296 295 294 293 294 292 292 290 293 294 292 293 293 294 297 300 305 309 312 314 315 317 318 320 320 320 319 320 320 321 321 321 321 323 326 326 327 328
306 303 299 296 295 294 293 292 292 292 291 290 289 291 292 292 292 290 293 295 295 295 300 307 308 310 311 313 315 316 316 316 317 319 319 318 318 319 320 320 321 322 323
301 298 296 294 294 293 292 291 290 290 290 289 290 291 290 290 290 291 291 292 291 292 294 299 303 304 306 308 310 311 313 312 312 312 314 314 315 316 316 317 318 318 319
296 295 294 293 292 292 290 289 288 288 290 289 291 292 290 292 290 288 290 292 290 291 292 291 292 294 302 304 305 307 308 309 310 312 312 312 313 314 315 315 316 317 317
294 294 293 292 291 289 288 288 288 287 287 289 287 288 290 290 290 290 288 289 289 290 290 290 291 292 292 300 300 303 305 307 309 310 310 311 312 313 313 314 315 315 315
294 293 291 290 289 288 287 286 286 286 286 287 284 285 283 285 288 289 287 289 286 289 289 290 290 291 290 290 292 300 301 304 308 309 310 311 311 311 312 312 313 313 314
292 291 290 289 288 287 286 285 285 284 284 284 286 284 280 279 283 286 287 286 286 286 287 288 289 289 290 289 292 293 299 301 304 307 309 309 309 310 310 311 311 312 312
290 290 289 288 287 286 285 285 286 284 284 282 284 287 284 284 280 280 284 285 284 286 285 285 286 288 289 288 292 295 298 300 303 305 307 307 308 309 309 310 311 311 311
288 288 288 286 286 286 284 284 283 282 283 282 282 282 282 282 282 279 277 280 283 284 285 283 285 286 287 288 287 290 298 299 302 303 305 306 307 308 309 309 309 309 309
287 286 287 285 284 284 283 283 283 282 282 282 282 281 281 280 280 279 278 279 279 281 283 284 284 285 286 286 291 295 297 298 300 302 304 305 305 306 306 307 307 307 307
285 284 284 284 283 283 284 283 282 282 281 281 280 280 282 281 282 281 280 279 278 280 280 282 283 284 287 287 287 294 296 297 298 300 302 303 302 302 302 303 305 305 305
285 284 283 283 283 283 283 282 282 282 281 281 280 280 280 281 281 281 279 278 276 277 280 278 283 283 284 286 289 294 289 294 295 297 298 299 298 298 298 299 300 301 301
285 283 283 282 282 282 282 281 281 281 280 280 280 280 279 280 281 281 281 280 278 275 276 279 279 285 284 286 288 288 288 292 294 294 295 295 295 295 295 296 296 297 297
283 282 282 282 282 282 281 281 280 281 280 280 281 279 279 280 280 281 280 281 280 278 276 281 282 284 285 286 288 288 287 291 292 293 294 293 293 293 293 294 294 295 296
282 282 282 282 281 281 280 280 279 281 280 280 280 280 279 280 280 280 280 280 280 280 277 280 282 284 284 283 284 285 286 286 287 292 291 291 291 291 292 293 293 295 296
282 282 282 281 281 281 280 279 280 280 280 279 279 279 279 282 280 280 280 279 279 280 279 277 281 282 282 283 284 284 285 287 286 287 289 290 290 290 291 292 292 293 293
281 281 281 281 280 280 280 280 280 280 280 279 279 278 279 279 278 279 279 279 280 282 281 281 279 282 282 284 283 283 283 283 283 286 288 288 289 289 290 290 291 291 291
281 281 280 280 280 280 280 280 281 280 279 279 279 279 279 279 279 279 279 280 282 280 280 279 280 281 282 282 281 279 278 280 280 282 285 286 287 288 288 288 289 288 288
280 281 280 279 279 280 282 283 282 281 278 278 278 279 280 282 286 285 283 281 281 280 280 280 281 280 278 277 276 278 277 279 280 281 280 280 280 281 281 285 285 286 287
280 279 279 278 278 281 286 288 286 280 279 278 277 278 279 283 282 287 287 287 286 284 281 278 278 277 276 276 277 278 278 277 274 281 279 279 281 279 280 280 284 286 287
278 277 277 277 276 277 286 287 287 281 279 278 279 279 280 282 283 280 284 287 286 286 285 280 276 276 276 278 280 278 277 277 276 279 279 277 279 277 280 280 285 286 287
277 277 276 276 276 278 285 286 287 280 279 278 279 278 278 279 280 283 283 283 279 279 279 280 279 279 281 281 280 279 279 278 279 279 279 274 277 276 279 280 284 285 286
276 275 276 276 275 276 284 285 285 279 279 279 279 279 279 280 285 287 283 279 278 278 281 284 285 284 284 284 283 280 276 275 273 275 278 275 276 276 277 278 280 285 286
276 277 277 276 279 275 282 285 284 280 278 279 280 280 284 283 286 287 281 279 275 276 279 279 277 278 279 279 283 279 277 274 273 272 277 275 275 276 274 278 278 279 280

GFSMA_sfc_thetae_003.txt.gz
Theta_e
333 324 311 309 309 308 306 305 304 302 301 301 301 303 302 304 305 307 309 315 318 320 322 323 323 324 328 327 327 328 327 327 327 327 328 329 329 328 328 331 332 334 336
318 312 307 305 306 304 302 302 301 300 299 298 298 300 301 302 302 302 306 306 311 313 316 317 318 321 321 322 324 324 323 323 323 322 322 323 324 323 324 326 328 329 330
311 307 305 303 302 302 300 300 299 300 298 297 297 298 300 301 299 301 303 302 304 306 309 312 312 314 315 317 318 319 320 319 320 322 322 321 320 321 323 324 324 325 326
308 304 301 301 301 300 299 298 297 298 297 296 296 297 298 301 298 299 301 301 302 301 302 306 306 308 309 311 314 314 315 315 315 315 316 317 318 318 318 320 320 321 321
304 302 300 300 299 298 297 297 296 296 295 295 295 297 297 300 297 298 298 300 299 299 300 300 302 302 304 306 309 310 311 311 312 313 314 316 315 315 316 317 317 318 319
301 300 299 298 298 297 296 295 294 294 294 294 293 294 299 302 300 299 296 297 298 297 299 298 298 298 300 303 305 306 308 308 309 311 313 313 313 314 315 315 316 317 317
300 299 297 296 296 294 293 293 294 292 292 294 292 294 296 297 299 300 296 297 296 295 297 296 296 296 296 300 302 303 305 306 308 309 311 312 313 313 314 314 314 315 316
298 297 296 295 294 293 293 292 292 292 291 292 289 291 289 292 295 293 296 295 294 295 295 294 294 294 295 296 297 300 301 303 305 308 309 310 311 313 313 313 313 314 314
296 295 295 294 293 293 292 291 291 291 289 291 291 289 287 286 287 292 293 294 292 292 292 293 293 293 293 294 295 296 298 300 303 306 308 309 310 310 311 312 312 313 313
294 294 293 293 292 292 291 291 290 290 290 288 290 289 289 289 285 284 290 290 291 289 290 291 291 291 292 292 294 296 298 300 302 305 307 308 308 310 311 311 311 312 312
293 292 292 291 291 290 290 290 289 289 289 288 288 288 288 288 288 285 282 286 288 289 290 290 290 290 291 292 293 295 297 299 302 304 306 307 308 309 309 310 310 310 310
291 291 290 290 290 289 289 289 289 289 288 288 288 287 287 285 285 284 283 284 284 286 288 289 289 290 291 292 293 295 296 298 300 302 304 306 306 306 307 308 308 308 308
289 289 289 289 289 289 289 289 289 288 288 287 287 287 287 286 286 285 284 283 282 284 286 288 289 289 290 291 291 293 294 296 297 300 302 303 302 302 302 303 304 305 306
289 288 288 288 288 288 288 288 288 288 287 287 286 286 286 286 286 286 284 282 281 282 284 284 288 289 290 290 292 292 291 293 294 296 298 299 298 297 298 299 300 301 301
288 287 288 287 287 287 287 287 287 286 287 287 286 286 285 286 286 286 286 284 282 278 280 283 284 288 288 289 290 290 290 292 293 294 294 294 294 295 296 296 296 297 297
287 287 287 287 287 286 286 286 286 286 286 286 286 285 285 285 285 286 286 285 284 282 279 284 285 287 288 288 290 289 289 291 292 293 293 293 293 293 293 294 294 295 296
287 286 286 286 286 285 285 285 285 285 285 285 285 285 284 285 285 285 286 285 284 284 281 284 286 287 286 287 287 289 290 289 290 291 292 292 292 292 292 293 293 294 294
286 286 286 285 285 284 284 284 284 285 284 284 284 284 284 284 284 284 284 283 284 284 283 281 284 285 285 287 287 287 288 287 288 289 290 290 291 291 291 291 292 292 293
285 285 285 284 284 284 283 284 284 285 284 284 283 283 283 283 282 283 283 283 284 284 284 283 282 285 286 287 286 286 285 285 285 287 288 289 289 290 290 291 291 291 291
285 285 284 283 283 283 283 284 285 285 284 284 283 283 283 283 282 283 283 283 284 283 284 283 283 283 284 285 284 282 281 284 283 285 287 287 288 288 289 289 289 289 289
284 284 283 282 282 283 283 286 286 285 284 283 283 283 283 284 286 286 285 284 284 284 284 284 282 282 281 281 280 281 281 282 283 284 284 284 285 285 285 287 286 287 287
283 283 282 281 281 282 285 287 287 285 284 283 282 283 284 285 285 287 287 287 287 285 283 282 281 280 279 280 281 281 281 279 277 284 282 281 284 283 284 285 286 287 288
282 281 281 281 280 281 285 287 287 285 283 283 283 283 283 284 285 284 285 287 288 287 286 283 279 279 279 281 282 280 280 280 279 282 281 279 282 281 284 283 285 286 287
281 280 280 280 280 281 285 286 286 284 283 283 284 283 283 283 284 284 285 285 283 283 282 282 282 283 284 284 282 282 281 281 281 282 282 276 281 280 282 283 285 286 286
280 279 280 280 279 281 284 285 285 284 283 283 284 284 283 283 285 287 285 282 281 281 283 284 285 285 284 284 283 281 279 277 276 278 281 278 279 279 280 281 284 285 286
280 280 280 280 280 280 282 284 285 283 282 282 283 284 284 284 286 287 283 281 278 279 281 282 279 280 281 281 283 281 279 275 275 275 279 277 278 279 276 281 282 283 284

GFSMA_sfc_thetae_006.txt.gz
Theta_e
337 331 322 320 319 317 314 312 309 307 306 305 305 305 306 306 308 311 314 315 316 319 321 322 323 323 323 325 326 325 325 325 325 325 325 325 327 326 327 327 329 332 333
333 317 311 310 312 310 307 306 306 305 304 304 303 303 304 305 306 308 311 310 310 313 314 315 316 317 318 319 320 320 321 321 322 323 325 325 324 324 325 325 327 328 329
322 312 308 308 308 307 306 305 304 304 303 302 302 302 303 304 306 306 308 307 308 307 308 310 309 311 311 314 315 315 316 317 317 317 318 319 321 321 321 322 323 324 325
311 307 305 306 306 305 305 303 301 302 301 301 301 302 302 303 304 304 304 304 304 304 303 304 305 306 307 308 311 312 312 312 313 314 314 316 317 318 318 318 319 320 321
306 306 307 305 304 303 302 301 300 300 299 299 299 300 302 304 303 303 302 302 303 302 303 302 301 301 302 305 308 309 310 310 310 311 312 314 316 316 316 317 318 318 319
307 307 306 304 303 302 300 300 299 299 298 297 297 298 304 306 304 305 303 301 301 300 301 300 300 300 300 301 304 306 307 308 308 309 310 312 315 315 315 316 317 317 317
305 306 304 303 302 300 299 298 298 297 296 297 297 299 301 301 304 303 300 301 299 299 299 298 298 298 298 300 301 302 305 306 307 307 308 310 313 313 314 315 316 316 316
304 304 303 301 300 299 298 298 297 297 296 296 293 296 294 298 300 299 301 297 298 297 297 297 297 297 297 297 298 300 301 303 305 307 308 309 310 312 313 314 315 315 315
302 302 301 300 299 299 297 296 296 295 294 295 295 293 292 292 292 298 296 298 296 296 296 296 296 296 296 296 296 297 298 301 304 307 308 309 310 311 312 312 313 313 314
301 300 299 299 298 298 296 295 295 294 295 293 296 293 293 292 289 289 295 295 294 294 294 295 294 294 295 295 295 296 297 299 302 305 307 308 309 310 311 312 312 313 313
299 298 298 297 296 296 295 295 294 294 294 293 292 292 292 292 292 289 287 291 293 294 294 293 293 293 294 294 294 295 296 298 301 303 305 307 308 309 310 310 310 310 311
297 297 296 296 296 295 295 294 294 293 294 293 293 292 290 289 289 288 287 288 288 291 292 292 292 292 293 293 294 294 295 296 298 301 303 304 305 306 306 307 307 307 307
296 295 295 295 295 294 294 294 294 294 293 292 291 291 291 290 290 289 288 287 286 289 290 291 291 292 291 293 292 293 294 295 296 299 301 302 301 301 301 302 303 303 304
296 295 294 294 293 293 293 293 294 293 293 292 291 291 290 290 290 289 288 286 284 286 287 288 291 291 291 291 292 293 292 293 294 296 298 298 297 296 297 298 299 300 301
294 294 294 293 293 292 292 292 293 292 291 291 291 291 290 290 290 290 289 288 285 281 282 286 287 290 290 291 291 291 291 292 293 294 295 295 294 295 295 296 296 297 298
293 293 292 292 292 292 291 291 291 291 290 291 290 290 289 289 289 289 289 288 287 284 281 286 287 288 289 289 291 290 290 292 293 294 294 293 293 293 294 294 294 295 295
292 292 292 291 291 291 290 290 290 290 289 289 289 288 288 288 287 288 288 287 286 286 283 285 287 288 288 288 289 290 290 290 290 292 292 292 292 292 292 293 293 294 294
292 291 291 291 290 289 289 289 289 289 288 288 288 287 287 286 286 286 286 285 285 286 284 283 285 286 286 288 288 288 288 288 288 289 290 291 291 291 291 292 292 293 293
290 290 290 290 289 288 288 288 288 289 288 288 287 286 285 285 285 285 285 285 286 286 286 285 284 287 288 288 287 287 286 286 286 288 290 290 291 291 291 291 291 291 291
290 290 289 288 288 287 287 287 288 289 288 288 287 287 286 285 285 285 285 286 285 285 285 285 285 286 286 287 286 284 283 285 285 286 288 288 290 289 290 290 290 290 289
289 289 288 287 287 287 287 288 289 289 288 287 287 286 286 286 287 287 286 285 285 284 285 285 284 284 284 283 282 283 283 284 285 285 286 286 287 287 287 289 288 288 288
288 287 287 286 286 286 285 287 288 287 287 286 285 286 286 287 286 287 287 287 286 285 284 284 283 281 281 282 283 283 282 281 279 285 284 283 286 285 286 287 288 288 288
287 286 286 286 285 285 285 287 287 287 286 286 285 285 285 286 287 285 286 287 288 289 287 285 281 281 281 282 284 283 282 281 280 283 283 281 285 284 286 286 287 288 288
286 286 285 285 284 284 284 286 286 286 286 286 286 285 285 285 285 285 285 286 285 285 284 283 283 284 285 285 284 282 282 282 283 284 284 279 283 282 285 286 287 288 288
285 285 284 284 283 284 283 285 286 285 285 285 285 285 285 284 286 287 285 284 283 283 285 285 286 287 286 285 284 282 281 279 278 279 282 281 281 281 283 284 286 287 288
284 284 283 284 282 283 283 284 285 285 284 284 285 285 286 286 286 287 285 282 281 281 282 284 283 282 283 283 284 283 282 278 277 276 281 279 280 280 278 283 285 285 286

GFSMA_sfc_thetae_009.txt.gz
Theta_e
334 334 329 327 323 320 317 313 310 308 307 306 306 305 306 306 307 309 313 316 316 318 320 320 321 321 321 322 322 322 322 323 323 324 326 327 327 326 326 327 327 330 331
334 327 321 319 316 313 309 308 307 306 305 305 304 304 304 305 305 307 310 309 311 312 313 314 314 314 314 315 316 317 317 317 318 319 319 320 322 323 323 323 325 326 327
328 321 315 313 311 309 308 307 305 305 304 304 303 304 303 303 305 305 307 308 308 309 308 308 309 309 310 311 312 313 313 313 314 315 316 316 317 319 319 320 321 322 323
323 315 312 311 309 308 306 304 303 303 303 302 301 301 303 303 304 304 305 305 306 304 306 304 304 305 306 308 311 312 312 311 311 312 313 314 315 317 318 319 318 318 320
313 307 309 309 307 306 304 303 302 301 300 300 299 301 304 304 304 303 303 303 304 303 303 306 304 304 302 304 307 309 310 310 310 310 311 312 313 315 318 317 317 318 319
310 311 309 307 306 305 304 303 301 301 299 298 297 300 304 305 305 304 304 301 302 301 302 302 300 301 304 302 304 305 307 308 308 309 310 310 311 313 315 316 316 317 318
309 309 308 306 306 304 302 302 301 299 298 298 299 300 302 301 303 305 300 301 301 299 300 299 299 299 298 301 301 302 304 306 307 308 309 310 311 312 313 314 315 316 317
307 307 307 305 304 303 302 301 300 299 298 297 294 298 296 298 300 299 300 299 298 299 298 298 297 297 297 297 298 300 301 304 306 307 308 309 311 312 312 314 314 315 315
305 305 306 304 303 303 300 299 299 297 296 297 296 294 293 293 292 299 299 298 298 297 297 297 296 296 296 296 297 297 298 300 303 306 307 308 309 310 312 313 313 314 314
302 303 303 302 302 301 299 297 297 296 297 294 296 294 294 292 289 289 297 297 297 295 296 296 295 294 295 295 296 297 297 298 302 304 306 307 308 309 311 311 312 312 312
301 301 301 301 300 299 298 297 296 295 295 294 293 293 293 293 293 289 287 291 294 295 295 295 294 294 294 294 294 295 297 298 300 302 304 305 306 308 308 309 309 309 309
299 300 300 299 299 298 297 296 296 295 294 294 293 292 291 290 290 289 288 288 289 292 293 293 293 293 293 293 294 295 295 297 299 301 303 304 305 305 305 306 306 306 306
297 298 299 297 297 297 296 296 295 295 294 293 292 292 292 291 291 290 289 287 287 289 290 292 292 293 292 292 292 294 294 296 297 299 301 303 302 301 301 302 303 303 303
299 298 298 297 296 295 295 295 295 294 293 293 293 292 292 292 292 291 289 287 284 286 287 287 291 291 291 291 292 294 291 294 295 297 298 299 298 298 298 299 300 300 300
298 297 296 295 295 294 294 294 293 292 292 293 292 292 291 292 292 291 290 289 285 281 282 286 287 290 290 290 291 290 290 293 295 295 296 296 295 296 296 296 297 297 297
296 295 295 294 294 293 293 293 292 292 291 292 292 290 290 290 290 290 289 288 287 285 281 286 287 288 289 289 290 290 290 293 293 294 294 294 294 294 294 294 295 295 296
295 294 294 293 293 293 292 291 291 291 290 291 291 290 289 289 288 288 288 287 286 286 282 284 287 288 287 287 288 289 290 289 289 292 293 292 292 293 293 294 294 294 295
294 293 293 292 292 291 291 290 290 291 290 289 289 289 288 288 286 287 286 286 285 286 284 282 285 285 286 287 288 288 288 289 287 289 291 292 292 292 293 293 293 293 294
292 292 292 291 290 290 289 289 289 289 289 289 289 287 287 286 285 285 285 285 286 286 286 284 283 285 286 288 287 286 286 286 287 289 290 291 291 292 292 292 292 293 293
291 291 291 290 289 289 288 288 289 289 289 289 289 288 287 286 285 285 285 285 285 284 284 283 283 283 285 286 285 283 282 284 284 286 288 289 290 290 291 291 291 291 291
291 290 289 289 288 288 288 287 288 289 288 288 288 287 287 288 287 287 286 285 285 283 283 282 282 283 282 281 280 282 281 282 283 284 283 284 285 284 285 288 288 289 290
289 289 288 287 287 287 286 287 288 287 287 286 286 286 286 287 287 288 288 288 287 284 283 283 282 280 280 281 281 281 281 280 277 283 282 281 283 283 284 285 289 289 290
288 287 287 286 286 286 285 287 287 286 285 286 286 285 285 286 287 285 286 287 287 288 288 284 281 280 280 281 282 281 280 279 278 281 281 279 283 281 284 285 288 289 289
287 286 286 285 285 286 284 285 287 285 285 286 286 285 285 285 285 285 285 284 285 285 284 284 283 282 283 284 284 282 281 280 281 282 282 277 281 279 283 283 287 288 289
285 285 285 285 284 284 284 285 285 284 284 284 285 285 285 285 287 288 285 283 283 282 285 286 286 287 288 287 285 282 279 278 277 278 281 278 279 279 280 280 283 288 289
284 284 284 284 284 283 284 284 285 284 283 283 284 285 287 286 287 287 284 282 280 280 281 282 283 283 283 283 285 283 281 278 277 276 280 278 278 278 276 280 281 282 283

GFSMA_sfc_thetae_012.txt.gz
Theta_e
326 326 323 320 315 310 307 303 302 301 300 300 298 298 298 298 298 303 308 319 318 318 319 319 319 318 318 318 318 318 319 319 320 320 320 321 322 323 325 325 326 327 328
327 318 314 312 307 304 302 301 299 298 298 297 297 297 296 297 298 300 304 307 313 312 312 313 313 313 313 314 314 314 314 315 315 316 316 317 317 318 320 321 322 323 324
322 315 311 307 304 303 301 299 298 298 297 298 296 297 296 296 297 299 300 302 305 311 309 308 308 309 309 311 313 314 313 314 313 314 314 315 315 316 317 319 320 320 320
316 311 308 305 303 301 299 297 296 296 295 294 293 293 294 296 297 297 298 298 298 300 305 305 305 306 306 308 310 311 312 312 312 312 313 313 313 314 315 318 319 318 319
309 305 305 303 301 300 298 298 296 295 293 293 293 292 297 297 296 299 296 297 297 296 296 303 305 305 304 306 308 309 310 310 310 310 311 312 312 313 314 315 318 318 318
305 305 305 301 301 299 297 297 295 295 292 292 295 296 295 297 296 296 295 296 295 295 294 294 293 295 302 303 305 306 307 308 309 310 310 311 312 313 313 314 316 316 317
307 304 304 301 300 297 296 296 295 293 292 292 292 293 294 295 297 297 293 293 294 293 293 293 292 292 293 300 301 303 304 306 307 308 309 310 310 311 313 314 315 315 315
305 305 303 300 298 297 295 294 293 293 292 291 288 290 288 292 292 293 293 293 291 292 292 293 292 291 290 290 294 300 301 304 305 307 308 308 309 310 312 312 313 314 315
303 304 302 301 298 297 294 293 292 291 290 291 289 288 285 285 286 290 291 291 291 289 290 292 291 291 290 289 293 294 298 300 303 306 307 308 308 309 310 311 312 313 313
302 302 300 300 297 296 293 292 293 291 291 288 290 291 288 287 284 283 288 289 290 290 289 289 290 289 289 289 293 295 297 299 302 304 306 307 307 308 309 310 310 311 311
301 300 300 298 295 294 292 291 291 290 290 289 288 287 287 287 286 284 282 285 288 289 289 289 288 288 289 289 288 292 297 298 301 303 304 306 307 307 308 308 309 308 308
299 299 299 297 294 293 292 291 291 290 289 289 288 288 287 285 285 284 282 282 283 286 287 289 288 287 288 288 292 295 295 297 299 301 303 304 305 305 305 305 305 305 305
297 297 297 296 292 292 292 292 291 290 289 288 287 287 287 287 287 286 284 283 281 284 284 286 286 286 288 287 287 294 295 296 297 299 302 303 302 301 301 302 303 303 303
296 297 296 292 291 292 291 291 290 290 288 288 286 287 287 287 287 287 284 282 281 280 283 282 287 285 285 286 290 294 287 294 295 297 299 300 298 298 298 299 300 300 300
296 297 294 290 290 290 290 290 289 288 287 287 286 286 286 287 286 286 285 284 281 278 279 280 281 286 285 286 287 288 287 292 294 295 296 296 295 295 296 297 297 297 298
295 294 291 290 289 289 289 289 288 288 286 286 287 285 285 285 285 285 284 284 282 280 278 281 282 282 284 287 289 288 287 292 293 294 294 294 294 294 294 295 296 296 296
294 293 290 289 289 289 288 287 287 287 286 286 286 286 285 285 284 283 282 282 281 281 279 281 283 284 282 283 285 286 287 288 288 292 293 293 293 293 294 294 295 295 295
292 291 289 289 289 288 287 286 286 286 286 285 285 285 284 286 282 282 281 281 280 281 280 279 282 283 282 283 284 285 287 288 286 289 291 292 292 292 293 293 293 294 294
291 288 289 288 288 287 287 285 285 285 285 285 284 283 283 283 281 280 280 280 281 284 281 281 280 282 282 284 285 284 283 283 285 288 290 290 291 292 292 292 293 293 293
288 288 288 287 287 287 286 286 286 285 285 285 286 284 283 282 281 280 281 281 283 281 281 280 280 280 282 284 282 280 280 281 281 284 286 288 289 290 290 290 290 290 290
287 287 287 286 286 286 287 285 286 285 284 283 283 284 284 286 288 287 285 282 282 280 279 279 281 281 280 279 279 279 279 280 281 282 281 282 282 282 283 287 287 288 289
286 287 286 285 284 286 288 288 287 284 283 282 281 282 283 286 286 288 288 289 287 282 281 281 282 278 279 278 278 278 278 278 277 282 278 279 281 280 282 283 287 289 290
286 285 284 284 283 284 287 286 287 283 282 281 281 281 282 285 285 282 285 287 286 288 288 283 279 279 278 279 279 279 280 280 278 280 279 277 281 280 281 283 287 288 289
283 283 283 284 284 284 286 286 286 282 281 281 281 281 280 280 282 284 282 280 281 282 283 283 281 280 281 283 284 283 281 279 280 280 280 276 280 278 280 281 286 287 288
283 283 284 283 281 280 285 285 284 280 280 279 281 281 281 281 286 288 284 278 280 280 284 286 286 287 287 287 285 282 278 277 276 278 280 278 278 278 279 279 281 286 287
283 283 282 280 283 279 284 285 284 281 278 279 280 281 286 285 287 288 284 281 278 278 279 280 281 281 282 280 284 280 278 275 275 275 278 277 277 277 275 279 279 280 280

GFSMA_sfc_thetae_015.txt.gz
Theta_e
322 324 327 325 310 305 302 300 299 298 297 296 296 295 296 296 300 306 309 321 320 318 318 317 317 317 316 316 316 316 316 317 317 317 317 318 318 319 321 322 323 325 326
323 318 314 307 303 301 300 298 296 296 295 295 295 294 294 296 297 302 303 309 314 312 312 313 312 312 313 314 315 316 315 316 315 315 315 316 316 316 317 318 320 321 321
317 312 307 302 301 300 298 296 296 296 295 295 292 293 294 293 295 300 301 302 305 313 310 309 309 309 310 312 313 313 313 314 313 313 314 314 315 315 315 316 318 319 319
316 310 305 302 300 299 297 295 295 294 292 292 290 291 293 295 295 295 297 298 298 301 304 306 306 307 308 309 311 311 311 312 311 312 313 313 313 314 315 315 316 318 319
313 308 303 300 299 297 296 296 294 293 290 290 292 291 295 295 294 297 294 295 296 294 294 303 304 304 304 306 308 309 309 309 310 311 311 312 313 313 314 315 315 316 318
306 305 301 299 299 297 295 295 293 292 290 289 294 294 293 296 294 295 292 295 293 293 292 292 292 293 302 303 304 305 307 308 308 309 310 310 311 311 312 313 314 315 316
306 302 300 299 298 296 294 294 293 291 290 289 289 291 293 293 295 296 291 291 291 292 291 291 291 290 291 299 300 302 303 305 306 307 308 309 310 310 311 312 313 314 314
303 302 301 299 297 295 293 292 292 291 290 289 287 289 287 290 290 291 291 291 289 290 291 292 290 289 288 288 293 298 299 303 304 306 307 308 309 309 310 311 312 312 313
302 301 300 299 296 296 292 291 290 291 289 289 287 288 285 285 284 289 289 289 288 288 288 289 290 290 289 288 291 292 297 299 302 305 307 307 308 309 309 310 311 312 312
301 301 300 300 297 294 291 290 291 290 290 288 289 290 286 286 283 282 287 287 288 288 287 288 288 288 288 288 292 294 297 298 301 304 306 307 307 308 309 309 310 310 310
302 301 300 298 295 292 292 290 289 289 289 288 288 287 286 286 285 283 281 284 286 287 287 286 287 286 287 287 287 290 297 298 301 303 304 305 306 307 308 308 308 308 307
301 300 299 296 295 294 293 290 289 289 288 288 288 287 286 285 284 283 281 281 281 284 285 286 286 285 285 286 291 295 296 297 299 301 303 304 305 305 306 306 305 305 305
299 298 297 295 294 292 292 291 289 288 288 287 286 286 286 286 286 285 283 281 280 282 283 284 284 285 287 285 286 293 294 295 297 299 301 303 302 301 301 302 303 303 303
299 298 296 295 295 294 290 290 289 288 287 287 286 286 287 286 286 286 284 281 278 279 280 281 284 282 284 284 290 293 286 293 294 296 298 299 298 297 298 299 300 300 301
299 296 295 294 293 293 289 289 288 286 286 286 286 286 286 286 285 284 284 283 280 276 278 279 279 283 283 284 287 287 286 291 293 295 295 296 295 295 296 297 297 298 298
297 295 294 293 291 291 288 288 286 286 286 286 286 285 284 284 284 283 283 282 281 279 276 279 280 280 282 285 287 287 286 290 292 294 294 293 293 294 295 295 296 296 297
297 294 292 291 291 288 287 287 286 286 285 286 285 285 284 284 283 282 281 281 280 279 277 279 280 281 280 281 283 284 285 286 287 291 292 292 293 293 294 294 294 295 295
295 294 292 291 289 287 286 285 285 285 285 285 284 284 284 285 281 281 280 279 279 279 278 278 280 281 281 282 282 282 285 287 285 288 290 291 292 292 292 293 293 294 294
293 293 291 289 288 286 285 285 284 285 285 284 283 283 283 282 280 280 279 279 280 282 280 279 280 281 281 282 282 284 282 282 284 287 289 290 290 291 291 292 292 292 292
292 290 289 288 287 286 286 286 286 284 284 284 284 283 282 282 280 280 280 280 281 279 279 279 279 279 280 282 281 279 279 280 280 283 285 287 289 289 289 290 290 289 289
289 288 287 286 285 286 287 285 286 284 283 283 282 282 282 285 288 287 284 281 280 279 279 277 277 280 280 279 278 279 278 279 280 282 281 281 281 282 282 285 286 287 288
287 287 285 284 284 287 290 290 287 284 283 281 280 281 282 286 285 288 288 288 286 280 275 276 279 279 278 278 278 278 278 277 276 282 278 279 281 280 281 282 286 288 289
285 283 283 284 284 286 289 288 287 283 281 280 280 280 281 284 285 281 285 287 287 288 287 283 279 278 277 279 278 278 280 280 278 280 280 278 280 279 281 282 286 287 288
284 283 283 283 283 286 288 287 287 280 280 280 280 279 279 279 280 283 281 280 281 281 282 282 280 280 280 282 283 282 280 279 279 280 280 276 279 278 280 280 285 287 288
283 282 282 282 282 283 286 286 284 280 280 279 280 280 281 280 286 288 283 278 279 280 284 286 286 287 287 286 285 281 276 275 274 276 279 276 277 277 278 279 280 285 287
281 283 282 280 283 278 285 285 283 280 278 278 279 280 285 284 287 287 283 280 278 277 278 279 279 280 281 280 284 279 277 274 274 274 277 276 276 277 275 278 278 280 280

GFSMA_sfc_thetae_018.txt.gz
Theta_e
326 324 325 326 321 312 301 298 297 296 295 295 294 294 294 298 303 307 311 322 321 319 318 317 316 315 316 316 317 317 316 317 317 316 317 317 317 317 318 319 321 322 323
324 323 321 314 303 300 298 296 295 295 294 294 293 293 293 295 302 302 306 309 316 314 313 312 312 312 313 314 315 314 315 315 315 315 315 316 316 316 316 317 318 320 321
322 316 310 302 300 298 296 296 295 294 293 293 291 291 293 292 299 300 301 301 306 314 310 309 310 310 311 313 314 313 313 313 313 314 315 315 315 315 315 316 316 317 320
315 308 303 300 299 297 296 295 294 292 291 290 289 290 293 293 295 298 299 297 299 298 304 307 306 307 308 309 311 312 311 311 311 313 313 313 313 314 314 315 316 316 317
313 307 303 300 298 297 296 295 293 291 289 289 291 291 294 293 293 295 294 293 295 293 293 303 303 303 304 306 307 308 308 309 309 310 311 311 311 312 313 313 314 314 316
311 305 301 299 297 296 295 294 292 290 289 288 294 293 291 293 292 291 292 293 291 291 290 291 290 294 302 302 303 304 306 307 307 307 308 310 310 311 311 312 312 313 314
309 303 300 298 297 296 294 293 291 290 289 288 289 291 291 291 293 291 290 290 290 290 290 290 290 289 290 299 299 301 302 304 305 305 307 309 309 309 310 311 312 312 313
307 303 301 298 296 294 293 293 292 290 289 287 287 288 287 289 289 290 289 289 288 289 290 290 289 288 287 287 292 297 298 301 304 304 307 308 308 309 309 310 311 311 312
305 304 301 298 295 294 292 291 291 291 288 288 287 288 285 285 284 287 287 287 287 287 287 288 288 288 287 287 290 292 297 299 301 304 306 307 307 308 309 310 310 311 311
304 302 300 298 296 296 293 290 291 290 289 287 288 289 286 285 283 283 286 286 286 287 285 286 286 286 286 286 290 294 297 298 301 304 305 306 307 307 308 309 310 310 310
303 302 301 299 297 294 293 290 289 289 289 288 287 286 285 285 284 283 282 283 285 286 286 285 285 284 285 286 287 292 296 298 301 302 304 305 306 307 307 308 308 308 308
301 301 301 300 297 295 293 291 291 291 288 287 287 287 286 285 284 283 281 281 281 284 284 285 284 283 284 284 289 294 295 297 298 300 303 304 304 305 305 305 306 305 305
299 300 300 298 296 292 293 292 290 290 287 286 286 286 286 285 286 284 283 281 280 282 282 283 283 283 286 283 284 292 293 295 296 298 301 302 301 301 301 302 303 303 303
301 301 299 297 295 295 294 291 289 290 286 286 285 286 286 286 286 285 283 281 278 279 279 281 282 282 282 283 288 292 286 293 294 295 298 298 298 298 298 299 299 300 301
301 300 297 296 295 294 293 291 290 287 286 285 285 285 285 285 285 284 283 282 279 276 276 278 279 281 282 282 285 286 284 289 292 294 294 295 295 295 295 296 298 298 298
300 298 296 295 295 293 292 291 289 286 285 285 285 285 284 284 284 283 282 282 281 278 275 278 278 279 281 284 286 285 284 289 290 292 293 293 293 293 294 295 295 296 297
298 295 295 294 293 291 290 289 286 286 285 284 285 285 284 283 283 282 281 280 279 278 276 277 279 280 280 280 282 283 284 284 285 290 291 292 292 293 293 294 294 295 295
297 295 294 293 291 290 289 287 287 285 285 284 284 284 284 285 281 281 280 279 278 278 278 277 278 279 280 281 281 280 283 286 285 287 290 291 291 292 292 292 293 293 293
294 294 293 292 291 289 287 286 285 284 284 284 284 284 283 281 280 279 279 278 279 281 279 278 278 279 279 280 281 281 282 282 283 287 288 289 290 291 291 292 292 292 292
293 292 292 290 288 287 286 286 285 284 284 285 285 283 282 282 281 279 279 279 280 279 279 278 278 277 278 281 280 278 278 280 280 282 285 287 289 289 290 290 290 289 289
291 290 288 287 287 287 287 286 285 284 284 283 283 283 283 283 288 286 283 281 280 279 278 275 276 277 279 279 278 278 277 279 280 281 281 280 281 281 282 285 286 287 288
288 288 287 286 286 289 291 290 286 284 284 282 282 281 281 285 285 288 288 288 286 279 276 273 273 278 278 278 278 278 277 276 276 281 278 279 281 280 281 281 286 288 289
287 286 285 285 286 287 291 290 287 284 282 280 280 279 280 283 283 280 284 287 287 288 288 284 279 278 278 278 278 276 278 279 278 280 279 277 279 278 281 282 286 287 288
285 284 284 284 285 287 289 288 286 281 280 278 279 279 278 279 281 283 282 280 281 281 282 282 280 280 279 281 282 282 279 278 279 279 279 274 278 277 279 280 285 287 287
285 285 284 283 284 285 287 287 283 279 279 278 279 279 280 280 285 287 283 278 280 280 284 286 286 287 287 287 285 280 276 275 274 276 278 276 276 277 278 278 280 285 287
283 283 281 282 284 280 286 285 283 280 278 278 279 280 284 283 286 287 283 281 277 277 278 278 278 279 280 279 284 279 276 273 273 273 276 274 276 276 274 277 278 278 279

GFSMA_sfc_thetae_021.txt.gz
Theta_e
324 325 324 324 322 313 303 298 296 295 294 294 293 293 296 302 305 309 311 322 322 320 319 317 316 316 317 317 317 317 317 317 317 317 317 317 317 318 318 318 319 320 322
324 323 322 322 315 304 298 296 295 294 293 293 292 292 293 301 302 305 305 309 318 315 314 313 313 313 314 315 315 315 315 315 314 316 316 316 316 316 317 317 317 318 319
322 322 320 312 303 298 296 295 294 293 292 292 290 291 292 296 299 301 301 302 305 314 311 312 311 311 313 313 313 313 313 312 313 314 314 315 315 315 315 316 317 317 317
322 316 311 303 298 296 296 295 293 291 290 289 289 289 292 292 297 298 298 297 298 297 305 307 306 307 307 309 310 310 310 310 311 311 312 312 312 313 314 314 314 315 315
317 313 307 300 297 296 295 295 292 291 288 289 290 292 292 291 294 298 294 294 295 293 295 303 304 303 304 305 306 307 307 308 308 309 310 310 311 311 312 312 313 313 314
312 308 302 299 297 296 295 293 291 289 288 289 293 292 292 291 291 291 291 293 291 290 290 290 289 293 302 302 303 305 305 305 306 306 307 309 310 310 311 311 312 312 313
310 307 302 299 299 298 295 293 290 289 288 288 290 290 290 290 291 289 289 289 289 289 289 289 288 288 288 298 300 302 301 303 304 306 306 308 309 309 310 311 311 312 312
311 307 303 300 299 297 293 292 291 289 288 287 287 288 287 289 288 289 288 288 287 288 288 289 287 287 286 286 290 300 299 301 303 305 306 307 308 309 309 310 311 311 312
311 308 304 302 299 298 294 292 291 290 288 287 286 288 285 285 285 286 286 287 286 286 286 287 287 286 286 285 289 291 298 300 302 305 307 307 308 308 309 310 310 311 311
310 307 304 301 299 298 295 292 292 290 289 287 287 287 285 286 283 282 285 286 286 286 285 285 285 285 285 286 291 296 298 299 302 304 306 307 307 308 309 309 309 310 310
308 306 302 300 299 298 296 292 290 290 289 288 287 286 285 285 283 283 281 283 285 285 285 284 284 284 285 285 286 291 296 298 301 302 304 305 306 307 308 308 308 308 308
304 303 302 301 299 298 296 294 292 291 289 289 288 286 286 285 284 283 281 280 281 283 284 284 283 283 283 283 288 293 294 296 298 300 302 304 304 305 305 305 306 306 305
301 300 301 300 298 296 296 295 292 290 290 289 286 286 286 285 285 284 283 281 280 281 282 282 282 282 285 282 284 292 293 294 295 298 300 302 301 301 301 302 303 303 303
304 301 301 300 298 296 295 294 293 290 289 288 287 286 285 285 286 285 283 281 278 278 279 280 281 281 281 282 287 291 285 291 293 295 297 298 297 297 298 298 299 300 301
302 301 299 297 296 295 295 294 292 289 289 287 287 286 286 285 285 284 283 282 280 276 276 278 278 280 281 282 284 285 283 289 292 293 294 294 294 294 295 296 297 298 298
301 299 297 296 296 295 294 293 291 289 289 288 288 286 284 284 283 283 282 282 281 279 276 277 278 279 280 284 285 285 284 289 290 291 292 292 293 293 294 295 295 296 296
300 299 298 296 294 293 292 291 289 288 287 287 287 286 284 283 282 282 282 280 279 278 276 277 278 279 279 280 282 282 283 282 283 289 291 292 292 293 293 294 294 295 295
299 297 295 294 293 292 291 290 290 289 287 286 285 285 284 285 283 282 280 279 278 278 277 275 277 278 278 280 280 279 282 285 284 287 290 291 291 292 292 293 293 293 294
297 296 294 292 291 291 290 289 288 287 286 286 284 284 284 283 282 281 279 278 278 280 278 277 277 278 278 279 279 280 280 281 283 286 288 289 290 291 291 292 292 292 292
295 293 292 291 290 289 288 288 287 286 285 285 285 284 284 283 282 281 279 278 279 278 278 278 278 276 277 279 279 278 278 280 279 282 285 287 288 289 289 290 290 290 290
292 290 289 288 288 288 289 287 287 285 284 284 284 284 284 284 286 285 282 280 279 279 278 276 277 275 277 279 278 279 277 278 279 280 280 280 280 281 282 285 286 287 288
289 289 288 288 288 289 291 290 287 284 284 283 282 282 282 284 283 288 289 289 286 278 275 273 271 277 278 278 278 277 277 276 276 280 278 279 280 279 280 281 285 288 289
288 287 287 288 288 290 292 290 288 284 282 282 282 280 280 282 282 280 284 287 286 288 288 283 279 278 278 279 279 277 277 277 278 279 279 276 279 278 280 281 286 287 288
286 286 286 286 286 288 289 289 286 282 281 280 280 278 278 279 280 282 281 280 281 281 281 282 280 280 280 281 281 281 280 278 278 279 278 274 278 277 279 279 285 287 288
285 285 285 285 285 286 289 288 284 281 280 279 279 279 279 279 284 287 282 278 280 280 284 286 287 287 287 287 285 280 275 274 274 275 278 276 276 276 278 278 280 285 287
285 285 284 284 286 284 287 286 284 279 277 278 278 280 284 283 286 287 282 280 278 277 278 278 278 278 280 279 283 279 274 271 274 273 276 274 276 276 273 277 278 278 279

GFSMA_sfc_thetae_024.txt.gz
Theta_e
326 327 326 325 322 313 306 297 295 294 293 293 292 294 302 304 306 309 311 323 324 321 320 318 318 318 318 317 317 317 317 316 317 317 318 318 318 318 319 319 319 319 320
326 325 323 322 319 307 299 296 294 294 292 292 291 292 298 302 304 304 304 311 319 316 315 316 315 315 316 316 315 315 314 314 316 316 316 317 317 317 317 317 318 319 319
323 323 323 319 314 300 296 294 293 292 292 291 289 291 294 298 301 301 301 301 303 315 315 313 312 313 312 313 314 313 312 312 313 313 314 314 314 314 315 316 316 316 317
323 321 320 316 304 296 296 294 293 291 290 289 288 290 290 296 297 298 297 297 296 297 305 308 307 308 309 309 309 309 309 310 310 311 312 312 312 313 313 314 314 314 315
323 320 319 309 298 296 295 295 292 291 288 289 290 292 291 292 296 298 294 294 294 293 293 303 305 305 305 306 306 307 308 308 308 308 309 310 311 311 312 313 313 313 314
321 318 312 303 297 296 294 293 291 289 288 289 293 292 290 290 291 292 291 292 289 289 289 289 289 292 302 302 303 305 304 305 305 307 307 308 310 310 311 312 312 313 313
317 314 308 300 297 297 296 293 290 289 288 289 290 290 289 289 289 288 289 288 288 288 288 288 288 287 288 297 299 302 302 303 304 305 307 307 309 310 311 311 311 312 313
316 311 307 303 299 298 296 294 291 289 287 287 288 288 287 289 287 288 287 288 287 288 288 287 286 286 285 286 292 299 300 302 304 305 306 308 309 309 310 311 311 312 312
314 313 310 305 301 301 297 295 292 290 287 286 287 289 284 285 285 286 286 286 286 285 285 286 286 285 285 286 290 293 299 300 303 305 307 308 308 309 310 310 311 311 311
314 312 310 306 303 301 299 296 294 291 289 286 286 287 285 286 285 283 285 285 285 285 284 285 284 284 285 285 290 295 297 298 301 304 306 307 307 308 309 310 310 310 310
313 312 310 306 303 301 300 297 294 292 290 288 287 285 284 284 283 283 281 283 284 285 284 284 283 283 284 284 285 290 295 297 300 302 304 305 307 307 308 308 309 308 308
310 309 307 304 304 303 298 297 297 295 292 290 289 289 286 286 284 283 281 281 282 283 283 283 282 282 283 283 288 293 294 296 297 299 302 304 304 305 305 306 306 306 306
306 305 304 304 303 302 299 298 295 295 294 291 290 288 289 286 286 284 283 280 280 281 281 282 282 282 285 282 284 291 292 293 295 297 300 302 301 301 301 302 303 303 303
309 308 304 303 302 299 297 296 295 294 293 291 289 289 288 288 287 286 283 281 278 278 279 281 281 281 281 282 287 291 285 291 292 295 297 298 297 296 297 298 299 300 301
309 304 304 302 300 297 296 296 295 292 292 289 288 288 288 288 287 287 284 283 281 277 277 279 280 280 280 281 284 285 283 288 292 293 293 293 294 294 295 296 297 298 298
304 302 302 300 299 297 296 295 292 290 290 289 289 288 287 287 286 286 284 282 281 280 277 278 279 279 280 283 284 285 283 289 289 291 291 292 293 293 294 295 296 296 297
302 302 301 299 298 296 294 293 291 290 289 288 288 288 287 286 285 284 284 281 281 280 277 278 278 279 278 279 281 281 282 281 281 289 290 291 292 293 293 294 294 295 295
299 299 299 297 295 294 293 291 290 289 288 288 287 287 286 286 284 282 283 280 279 278 278 275 277 278 278 279 280 279 282 284 283 287 290 291 291 292 292 292 293 294 294
298 298 297 295 293 292 290 290 290 290 289 289 288 287 285 284 283 283 282 281 279 280 277 277 277 278 278 278 278 279 279 280 282 286 288 289 289 290 291 292 292 292 292
296 295 294 292 291 291 290 289 288 287 287 286 286 285 285 284 284 283 282 280 280 279 278 277 277 277 277 279 278 278 278 279 279 282 284 286 288 289 290 290 290 290 290
293 291 291 290 290 290 290 288 288 287 286 285 285 284 284 285 286 285 282 281 280 279 279 274 276 275 276 277 277 279 278 278 278 280 280 279 280 280 281 285 286 287 288
290 290 290 289 289 291 293 292 287 285 284 283 282 283 282 284 284 287 289 289 285 279 275 272 272 277 277 278 276 277 277 276 276 280 277 279 280 280 280 280 285 288 289
290 289 290 289 289 291 293 291 288 284 283 282 282 282 282 282 283 281 284 286 286 288 287 281 279 277 278 278 278 275 277 278 278 280 279 277 278 278 280 281 286 287 289
289 288 288 289 289 291 291 290 287 283 282 281 282 281 280 280 281 283 281 280 281 281 281 281 280 280 280 280 280 281 280 279 278 279 279 273 278 277 279 279 285 286 288
285 285 286 286 285 286 290 288 284 282 281 280 281 280 280 280 284 287 282 278 280 280 284 286 286 286 286 286 285 280 274 274 273 275 278 275 276 276 278 278 280 285 287
285 285 285 285 288 285 288 288 284 281 279 279 278 279 283 282 285 286 282 280 277 277 278 278 277 278 279 278 283 278 273 270 272 273 275 274 275 275 274 277 278 277 279

GFSMA_sfc_thetae_027.txt.gz
Theta_e
337 338 335 337 335 328 319 308 305 304 303 302 303 308 313 317 320 321 323 324 326 322 321 320 320 320 319 319 319 317 317 317 319 318 318 319 318 319 319 320 320 321 321
338 336 333 334 332 325 316 308 304 303 302 302 301 307 311 315 317 316 317 318 321 319 317 316 317 318 317 317 316 315 315 315 316 316 317 316 316 316 317 318 318 318 318
334 336 334 332 331 319 309 304 302 302 301 299 300 303 309 312 313 311 312 312 313 317 316 314 315 313 313 314 314 312 311 312 313 313 313 314 314 314 314 315 315 316 316
331 333 332 332 328 312 306 303 302 300 300 300 299 300 305 308 309 308 308 307 308 308 310 309 309 310 310 309 309 309 309 310 310 310 311 311 312 312 313 313 314 314 315
331 330 330 331 321 310 304 303 300 301 299 298 298 300 300 305 306 304 304 303 305 304 305 306 306 306 305 306 307 308 308 307 307 308 308 309 310 311 311 312 313 313 314
331 329 328 326 315 308 303 302 300 298 298 298 298 299 299 302 304 303 302 300 300 299 298 298 300 300 302 303 304 305 305 305 305 306 307 307 309 310 311 312 312 313 313
329 328 326 321 312 308 304 302 299 297 296 299 299 298 298 298 299 300 299 298 297 297 297 297 298 298 297 297 299 301 303 303 304 305 307 307 309 310 311 312 312 312 313
327 327 324 318 311 307 302 300 297 296 297 298 298 299 296 296 296 296 297 296 296 296 295 295 295 295 295 296 299 299 300 302 304 306 307 308 309 310 311 311 312 312 313
327 326 323 318 310 307 303 301 297 297 296 296 296 299 294 296 295 294 294 295 294 294 295 294 293 293 294 296 297 298 300 300 302 304 306 308 309 309 310 310 311 312 312
326 324 321 319 313 309 306 301 299 298 298 295 292 292 293 296 295 291 293 293 293 293 293 293 293 292 292 293 293 295 296 297 300 303 305 307 307 308 310 310 310 310 311
325 322 320 316 313 308 308 305 300 298 297 296 296 291 291 292 291 294 291 291 291 293 293 293 292 291 291 292 293 294 295 296 299 301 304 306 306 308 308 309 309 309 309
322 319 317 316 314 310 309 306 303 301 298 295 294 294 294 293 291 291 291 290 292 291 292 292 291 291 290 291 290 292 293 295 297 299 302 304 305 305 306 306 306 306 306
317 316 315 314 311 309 308 306 303 302 300 298 296 293 293 292 290 291 290 288 287 289 290 291 291 290 289 290 291 291 291 293 295 298 301 303 302 301 301 302 303 303 304
319 319 315 313 312 310 308 305 303 302 300 299 295 293 292 290 290 290 290 287 284 284 285 289 289 289 289 289 290 291 290 291 293 295 297 298 297 297 297 298 299 300 301
317 316 312 310 310 308 306 302 302 300 297 294 293 293 292 290 291 289 289 288 289 284 283 286 287 288 289 289 289 290 290 290 292 293 293 294 294 294 295 296 297 298 299
314 310 309 308 306 305 303 302 299 296 293 292 292 291 291 290 290 288 289 287 287 286 282 286 285 287 287 287 288 290 289 290 290 291 292 292 292 293 294 295 296 297 297
309 307 307 305 303 302 301 299 295 293 291 291 290 290 288 288 288 287 287 285 285 285 283 286 285 286 285 286 287 289 288 288 288 290 291 291 292 293 294 295 295 295 296
305 305 303 301 301 299 299 296 293 292 290 289 289 289 287 288 286 286 285 284 284 284 283 281 283 284 284 286 287 286 287 287 288 288 290 291 292 292 292 293 293 294 295
303 301 300 299 297 295 294 293 291 291 290 289 289 289 288 287 285 285 284 283 283 283 282 282 283 284 285 286 286 286 286 287 286 287 288 289 290 290 291 292 293 293 293
299 298 297 294 292 292 291 291 290 289 288 287 287 286 286 285 285 285 284 284 284 282 283 282 282 283 284 285 285 283 283 286 285 285 287 287 289 289 290 290 291 290 290
293 293 292 291 291 291 291 289 289 288 287 286 285 285 285 286 286 287 285 284 283 283 283 283 283 283 283 283 283 285 283 283 284 285 284 285 285 285 286 287 287 288 288
292 292 291 291 292 293 295 293 290 287 286 285 284 284 284 285 285 287 287 288 288 284 284 283 282 282 283 283 284 282 282 281 279 286 283 283 285 283 285 285 287 288 289
291 290 291 291 291 292 294 292 290 286 285 284 284 283 283 285 284 283 284 286 286 287 288 286 284 283 282 284 284 282 282 281 280 283 283 281 283 282 284 285 287 288 288
290 290 290 290 290 291 293 291 288 284 283 283 283 283 283 283 283 284 284 285 285 285 285 285 285 285 285 285 284 284 283 282 282 283 283 277 282 282 284 284 286 287 288
286 285 285 285 285 287 290 288 284 283 282 282 282 282 283 283 284 286 285 283 283 284 285 286 286 286 286 286 285 283 280 279 277 279 282 279 280 281 282 282 284 286 287
285 285 285 285 288 287 289 287 284 282 281 281 282 282 283 284 285 286 285 283 280 281 282 282 282 281 282 281 283 282 280 277 276 276 281 278 279 279 277 282 284 284 283

GFSMA_sfc_thetae_030.txt.gz
Theta_e
338 339 339 341 339 338 331 324 318 314 312 310 310 312 314 317 319 322 325 326 327 323 322 321 322 320 320 320 319 317 317 319 318 319 319 318 317 318 319 319 319 320 320
338 338 339 338 339 337 332 324 317 314 312 310 308 311 314 317 318 319 321 321 323 321 319 318 319 319 318 318 316 315 314 316 315 316 316 316 316 316 316 316 317 317 317
337 338 337 337 336 337 331 322 316 313 311 308 308 310 313 315 316 316 317 317 316 320 318 316 317 314 315 315 313 311 311 313 313 313 313 313 313 313 314 315 315 315 316
336 337 336 335 337 336 327 319 315 311 310 308 307 307 311 313 314 313 313 313 313 314 312 313 311 312 310 309 309 309 309 310 309 309 310 311 312 312 313 313 313 314 314
337 335 335 337 337 333 323 318 313 312 309 307 306 306 308 310 311 310 310 310 311 311 310 308 308 307 306 307 307 308 307 307 306 307 308 308 310 311 311 312 313 313 314
338 336 334 334 335 330 322 317 313 310 309 307 302 303 305 308 310 309 308 307 308 307 306 305 306 304 303 303 303 304 305 305 305 306 307 308 309 310 311 312 313 313 314
338 336 336 333 333 328 323 317 313 307 305 306 304 303 303 304 306 308 307 306 305 304 303 302 303 302 301 297 299 301 304 303 304 306 307 308 309 310 312 312 313 313 314
338 336 335 333 332 327 325 318 311 307 307 306 305 304 300 300 302 305 305 304 303 302 301 301 301 300 300 301 301 299 300 302 304 306 307 308 309 310 312 312 312 312 313
338 336 335 334 331 327 324 318 311 308 304 303 306 305 300 300 300 301 302 302 301 301 301 300 299 298 298 300 299 300 299 299 301 304 306 307 308 309 310 311 312 312 312
334 335 333 333 329 325 322 317 312 310 309 303 302 301 301 304 300 296 298 299 300 299 300 299 298 297 298 298 296 296 296 297 300 303 305 307 308 309 310 311 311 312 311
331 332 332 331 328 324 323 319 314 309 308 308 303 299 297 298 299 299 297 295 297 298 299 298 298 297 296 297 296 296 294 296 299 301 303 305 307 308 309 309 310 310 310
328 329 328 329 328 325 323 320 316 311 308 308 303 299 298 296 295 295 296 297 296 296 297 297 297 296 296 295 294 293 293 294 297 299 302 305 305 306 307 307 307 307 307
324 325 325 325 325 326 323 319 315 311 309 304 303 300 300 299 297 297 298 292 294 294 294 295 295 295 295 295 294 291 292 293 295 298 301 303 302 302 302 303 304 304 305
325 327 324 324 323 323 322 319 315 312 306 303 302 299 296 295 295 294 293 290 287 290 290 290 293 292 293 292 293 290 293 292 294 296 298 298 297 297 298 299 300 301 302
324 325 325 322 321 320 319 317 315 312 310 308 305 299 295 295 295 293 294 291 292 285 286 289 289 292 292 293 292 292 292 293 293 294 295 295 294 295 296 296 297 298 299
321 321 321 320 318 315 314 313 310 309 305 301 298 295 293 293 291 290 290 289 288 287 284 288 286 288 289 289 290 290 291 292 292 293 293 293 293 294 295 295 296 297 298
319 318 317 315 313 311 309 307 304 302 298 294 293 292 289 290 289 288 289 288 286 287 284 285 286 286 286 288 288 290 292 291 291 292 293 293 293 293 294 295 295 296 297
314 313 313 310 309 307 305 303 298 296 294 291 292 290 288 290 288 288 287 285 285 284 284 282 285 285 285 287 287 287 288 289 290 291 292 292 292 293 293 294 294 294 295
310 309 309 306 304 302 300 299 296 293 292 291 290 290 289 288 286 286 285 284 284 286 285 284 285 286 286 286 286 287 288 289 289 290 291 291 291 292 292 293 293 294 293
305 305 303 300 298 297 295 293 292 291 291 290 290 288 288 287 286 285 286 285 286 286 285 284 285 285 286 287 286 285 285 288 287 288 289 290 290 290 291 292 292 291 291
296 296 295 293 293 292 292 291 290 289 288 287 287 287 286 287 289 287 287 287 286 284 285 286 285 285 286 285 285 286 285 286 286 287 287 288 288 288 289 290 290 290 290
293 293 293 292 292 293 294 293 291 289 288 286 285 285 285 287 287 288 290 290 289 287 286 286 286 284 284 285 286 285 284 283 281 287 286 285 288 286 288 288 290 290 290
292 292 293 294 293 294 295 294 291 288 286 285 285 284 285 286 286 285 286 287 288 288 288 287 284 285 285 286 285 284 283 282 282 285 285 282 286 285 288 288 290 290 290
291 291 290 291 291 293 293 291 288 284 284 284 284 284 284 284 285 285 285 286 286 287 287 287 287 286 286 286 286 285 284 284 284 285 286 281 285 284 287 288 289 290 290
286 285 286 286 285 285 289 288 285 283 283 283 284 284 284 284 284 286 286 285 285 286 287 286 286 286 287 287 286 285 282 281 280 282 285 282 283 283 285 286 287 288 289
285 287 285 285 288 285 288 286 285 283 283 283 284 284 283 284 285 286 286 285 282 283 283 284 284 284 284 284 284 283 283 280 279 278 284 281 282 281 279 284 285 286 286

GFSMA_sfc_thetae_033.txt.gz
Theta_e
339 339 339 339 338 337 334 329 323 318 316 314 313 313 315 317 319 322 327 327 328 325 323 324 323 322 322 321 319 319 320 319 320 319 318 318 319 320 319 319 319 320 321
338 337 337 337 339 338 336 331 324 319 316 314 312 312 314 317 318 319 323 322 325 324 321 321 321 320 320 319 317 316 316 316 317 316 316 317 316 316 317 317 317 317 318
337 336 336 336 338 340 335 332 325 319 316 314 312 312 314 315 316 317 319 319 317 320 321 320 320 317 317 317 314 312 313 314 313 314 313 313 314 314 314 315 315 316 316
337 335 336 337 335 338 334 332 323 317 315 313 311 310 312 314 314 314 316 316 315 314 315 318 315 315 313 311 310 310 311 310 310 309 310 311 311 312 312 313 314 314 315
338 336 336 337 335 335 335 330 323 318 315 313 312 310 310 312 312 312 312 313 313 314 312 311 314 311 309 308 309 309 309 308 307 308 308 309 309 311 312 312 313 313 314
340 338 336 336 336 335 333 327 322 318 316 313 308 307 308 310 312 311 309 309 310 311 310 308 308 305 306 306 304 305 306 306 306 306 307 308 309 310 311 313 313 314 314
341 340 338 335 334 332 331 326 321 316 313 313 307 306 307 306 308 309 309 308 308 307 307 306 305 305 302 301 300 302 304 305 305 306 307 308 310 311 312 313 314 314 314
341 340 338 336 335 333 331 327 321 314 311 310 307 307 302 301 303 306 307 306 305 305 303 303 303 302 303 302 304 300 301 303 304 306 307 308 309 310 312 313 313 313 314
340 339 338 336 335 334 331 327 321 315 310 309 311 309 305 302 300 303 304 304 303 303 302 301 301 301 301 301 300 300 301 300 301 303 305 307 309 310 311 312 313 313 313
334 338 336 335 334 333 330 328 323 316 314 307 307 308 307 307 301 296 300 301 302 301 300 300 299 299 299 300 299 299 299 297 299 302 304 306 307 309 310 311 312 312 312
334 333 335 334 331 333 330 328 322 314 315 311 307 304 303 301 302 301 295 295 299 300 300 300 299 298 298 298 298 298 296 296 298 300 303 305 307 308 310 310 311 311 311
334 331 331 331 331 330 328 326 323 317 315 314 309 305 301 299 297 297 298 296 294 296 298 299 298 297 297 296 296 297 295 294 296 298 301 303 305 306 307 307 307 308 308
327 328 329 328 328 327 326 325 323 318 316 312 312 309 304 304 301 299 301 295 296 295 295 296 296 297 296 296 295 293 294 294 295 298 301 302 302 301 301 303 303 305 305
324 327 326 326 326 325 324 324 322 319 316 313 312 309 304 301 297 296 297 293 289 290 290 292 293 295 295 294 295 293 292 295 295 296 298 299 298 297 298 299 300 301 302
324 325 326 324 324 323 322 321 318 315 313 312 309 306 303 298 295 294 294 293 294 288 288 288 288 291 292 292 292 292 291 293 295 296 296 296 296 296 296 297 297 298 299
320 319 321 321 321 320 320 317 315 313 311 309 306 300 296 294 293 291 290 289 289 289 285 287 286 287 288 289 290 290 289 292 294 295 295 295 295 295 295 296 296 297 298
317 317 317 317 316 316 314 312 309 308 305 299 298 295 293 292 291 290 290 289 288 288 286 285 287 287 286 287 288 289 290 290 290 293 294 295 295 295 295 295 295 296 297
315 314 314 314 313 312 309 307 302 301 297 295 294 293 290 292 290 289 288 287 286 287 287 285 285 285 285 287 287 287 288 290 289 291 293 294 294 294 294 294 294 295 295
311 311 310 309 307 306 304 302 298 297 295 294 293 292 290 289 288 287 286 286 286 286 285 285 285 286 286 287 287 288 288 288 290 292 293 293 292 293 293 294 294 294 294
306 305 303 302 301 299 296 295 294 293 292 291 291 291 290 290 287 286 286 285 285 285 285 285 285 285 286 288 287 285 285 287 287 288 290 290 292 292 292 293 292 292 292
297 296 295 295 294 294 293 293 292 290 289 288 288 288 288 289 290 288 287 286 286 286 285 285 285 285 285 285 284 285 284 285 285 286 286 286 286 287 288 290 290 291 291
294 294 293 293 293 293 294 293 291 290 288 287 286 286 287 288 290 291 290 290 288 285 285 286 286 284 284 284 285 284 283 282 279 286 283 283 286 285 286 287 290 291 292
293 292 293 294 293 294 295 294 291 288 286 285 285 285 286 287 287 286 288 288 289 290 290 287 284 283 283 284 284 283 282 282 281 283 283 281 284 283 286 287 290 291 291
288 288 288 289 290 291 293 291 289 285 284 284 284 284 284 284 285 285 285 285 285 286 286 287 286 285 285 286 285 284 283 282 283 283 284 279 283 283 285 286 290 291 291
286 285 286 285 285 286 290 289 286 284 283 283 284 284 284 284 285 286 286 285 284 284 287 287 287 287 287 287 287 284 281 279 278 280 283 281 281 281 283 283 284 289 290
286 286 285 286 287 285 288 287 285 284 283 283 284 284 284 284 285 286 285 285 282 282 282 282 282 283 284 283 285 282 281 278 279 278 281 279 279 280 277 282 283 283 284

GFSMA_sfc_thetae_036.txt.gz
Theta_e
333 335 337 332 329 331 327 324 319 312 310 308 306 306 307 309 311 321 320 328 330 329 327 327 325 325 324 321 321 321 320 321 320 319 319 319 319 319 319 320 320 320 320
334 334 334 334 332 333 332 324 319 313 309 307 306 305 306 309 310 318 318 319 326 327 324 325 324 323 323 320 319 318 318 318 318 317 317 317 317 317 317 317 318 318 319
332 334 332 332 333 334 332 330 320 313 309 308 305 305 307 308 310 311 316 313 316 322 324 323 322 321 321 320 317 316 316 315 315 314 314 314 314 315 315 316 316 316 317
332 329 328 331 332 334 333 327 321 311 309 306 304 303 305 307 309 309 311 312 311 311 318 324 321 319 318 315 313 313 314 313 311 310 310 311 312 312 313 314 314 314 315
332 330 328 330 331 330 331 328 322 311 308 306 305 303 303 305 306 308 307 308 308 308 307 317 318 317 314 313 312 313 313 311 309 309 308 309 309 310 311 312 313 314 315
333 331 329 329 331 329 331 329 320 313 309 307 306 303 301 303 305 304 304 306 305 307 304 304 304 305 312 311 310 309 309 308 308 308 307 308 308 309 310 312 313 314 315
335 331 331 328 332 330 329 330 319 312 309 306 300 299 299 300 301 303 303 302 303 303 302 303 302 300 303 309 306 305 306 308 308 307 307 308 309 310 311 312 313 313 314
336 334 334 329 327 330 329 329 321 310 307 304 299 298 295 296 298 300 301 301 300 301 301 300 300 299 297 297 297 305 306 307 308 307 307 307 308 309 310 311 312 313 314
334 335 334 334 329 326 329 327 321 313 308 304 304 301 297 295 294 297 299 300 299 298 298 298 298 298 297 297 302 300 303 305 306 306 305 306 307 308 309 311 312 313 313
333 335 331 330 332 333 329 327 322 316 308 304 303 306 301 300 295 292 297 299 299 298 297 297 296 296 296 296 299 301 303 301 301 303 304 305 306 307 309 310 311 312 312
332 330 332 331 330 331 331 328 323 317 312 308 306 304 303 299 297 295 291 294 297 297 296 297 296 295 295 295 294 300 302 300 300 301 302 304 305 307 309 309 310 311 310
327 328 330 330 330 329 329 327 325 320 313 311 306 304 303 301 297 297 294 292 293 294 294 296 296 295 294 294 298 300 300 298 299 299 301 303 305 305 306 306 307 307 307
322 323 327 327 327 328 327 326 323 319 314 312 310 307 304 305 303 300 299 295 293 293 293 295 294 294 295 294 295 297 297 296 297 298 301 303 303 302 302 302 303 304 305
320 323 326 326 326 326 325 323 322 320 316 313 312 310 306 305 304 301 300 294 290 290 291 291 293 294 294 293 294 296 293 297 297 297 299 300 299 299 299 299 300 301 302
318 317 317 321 323 323 323 321 321 319 316 313 312 309 304 301 302 300 300 299 296 288 287 289 289 291 292 292 294 292 291 293 295 296 297 297 297 297 297 298 298 299 299
312 314 314 315 317 319 318 317 315 314 311 309 307 305 299 297 296 296 295 294 294 292 286 288 287 288 290 291 292 291 290 293 294 296 297 297 296 296 296 297 297 298 298
310 311 311 311 313 314 313 311 309 308 304 301 300 299 296 295 292 291 291 291 290 290 288 285 287 287 287 287 289 290 290 290 290 294 295 295 295 296 296 296 296 297 297
308 308 308 308 307 306 305 304 301 301 298 296 295 294 293 293 292 291 290 289 289 289 288 286 285 285 285 286 288 287 289 290 289 291 293 294 295 295 295 295 294 295 295
304 303 302 301 301 300 300 299 297 296 296 295 294 293 292 291 289 289 288 288 287 287 287 287 285 285 286 287 286 287 287 287 288 291 293 293 293 293 294 294 294 294 294
294 294 294 293 293 293 293 293 293 292 292 292 292 291 290 290 289 287 286 285 286 286 286 285 285 286 286 286 286 284 283 284 284 287 289 290 291 291 292 292 293 292 292
292 292 293 293 293 293 293 292 291 291 289 288 288 288 288 290 291 289 287 286 286 285 285 285 284 284 284 283 281 282 281 281 282 283 282 282 282 282 284 289 289 290 291
294 292 293 293 293 294 295 294 291 288 288 287 286 286 287 290 292 292 291 290 288 286 285 285 282 281 280 280 280 280 279 276 275 281 279 281 281 282 282 283 289 291 292
291 290 292 292 292 293 294 293 291 287 286 285 285 286 286 288 287 286 290 290 290 290 289 285 281 280 279 280 280 277 277 275 277 280 279 279 280 280 282 285 289 291 291
288 288 287 288 289 291 293 292 289 285 284 284 285 284 284 284 285 285 284 285 284 283 284 285 282 281 281 281 281 279 279 278 279 280 280 276 278 280 282 281 289 290 290
285 285 285 286 286 287 291 289 286 284 283 283 284 284 284 284 285 286 284 281 281 281 287 288 287 287 287 287 286 280 275 273 274 277 279 277 278 278 279 281 281 288 289
284 285 285 285 287 283 288 288 285 283 280 281 282 283 285 284 286 286 282 280 278 278 279 279 279 281 282 281 285 280 275 268 269 271 278 274 276 277 274 279 279 281 281

GFSMA_sfc_thetae_039.txt.gz
Theta_e
327 329 328 328 331 330 328 324 321 316 311 307 306 305 306 307 316 320 322 330 333 332 330 329 328 327 325 323 324 322 322 322 320 320 321 320 320 320 320 320 320 321 321
331 331 331 327 325 328 328 326 320 313 308 306 304 303 304 307 311 317 319 323 329 330 328 328 327 326 324 323 323 322 320 321 319 319 318 318 318 318 318 318 318 318 319
332 332 332 331 330 330 328 328 322 314 308 306 304 303 304 305 310 316 315 316 321 325 328 326 325 325 324 323 321 320 319 318 317 316 316 316 315 315 315 316 316 316 316
332 331 330 330 332 331 330 327 323 316 308 305 303 302 303 305 307 313 313 312 312 313 322 327 325 324 324 323 320 319 318 316 315 313 313 313 313 313 313 313 313 314 314
330 329 328 330 330 332 331 329 325 315 308 304 303 302 301 303 306 308 311 310 309 309 308 321 324 323 322 319 318 318 318 315 313 312 311 311 311 311 311 312 312 312 313
331 330 328 327 330 329 330 327 324 312 308 306 306 303 300 302 304 304 304 310 307 307 306 307 310 311 318 316 316 317 318 315 312 312 311 310 310 310 311 311 312 312 313
333 328 327 325 329 329 329 328 322 315 308 306 302 298 298 298 300 302 302 302 304 306 304 304 302 302 307 314 314 313 313 313 312 311 311 310 310 311 311 311 312 313 313
333 335 331 326 326 327 326 325 321 313 314 307 303 296 294 296 297 299 301 301 301 303 304 303 301 299 300 301 302 309 309 312 312 312 311 310 310 310 310 311 312 312 313
332 331 330 330 329 328 326 325 324 317 311 307 304 302 295 295 293 296 298 299 299 299 301 302 301 300 297 297 302 304 307 309 311 312 310 309 308 309 309 310 311 312 313
331 331 329 328 326 326 325 327 327 322 312 307 304 304 304 299 294 293 297 299 300 298 299 298 299 297 297 297 301 303 305 306 308 308 308 308 308 308 310 311 311 312 312
330 330 330 327 326 327 328 324 322 320 315 312 307 303 302 301 297 294 293 297 299 300 299 300 298 297 296 296 297 301 305 305 304 305 306 306 306 307 309 310 311 310 310
324 328 328 327 328 328 325 322 322 322 319 315 310 306 304 303 301 296 294 294 297 299 298 298 297 295 294 294 299 304 305 303 302 302 303 304 305 306 307 308 308 307 307
319 321 325 324 325 327 327 325 321 321 319 315 311 309 308 308 306 302 301 296 296 296 295 296 295 294 295 294 296 302 302 301 299 299 301 304 304 304 304 305 306 306 306
315 319 324 325 325 325 323 324 322 320 316 315 313 310 309 308 305 304 302 298 293 291 292 291 293 294 293 294 299 299 297 297 297 298 301 302 301 301 301 302 303 303 303
315 314 315 315 316 318 319 321 319 318 317 314 313 312 308 305 304 302 302 301 300 292 288 290 291 291 293 295 297 293 293 294 296 298 298 299 299 299 300 300 300 300 301
310 311 311 311 311 313 314 314 313 312 312 309 308 306 302 300 300 298 299 297 298 296 290 290 289 290 293 294 295 292 292 294 295 297 298 298 300 299 298 298 298 299 299
307 307 307 307 307 307 308 306 304 304 303 302 301 301 297 296 294 294 294 294 294 294 292 287 288 289 289 290 291 291 291 291 291 295 297 298 297 296 297 297 297 298 298
301 302 302 301 301 302 301 300 299 298 297 297 296 295 293 294 292 292 292 292 291 292 290 287 286 285 286 287 288 288 290 292 291 292 294 294 295 296 296 295 295 295 296
294 294 294 293 293 294 296 297 297 295 295 295 294 293 292 292 290 290 290 289 288 288 288 288 285 286 286 287 287 288 288 288 289 291 293 294 294 293 293 294 294 294 294
292 292 291 292 292 292 292 293 293 291 291 291 291 291 291 291 289 288 287 286 286 287 287 287 286 285 286 287 286 285 284 285 284 287 289 290 291 291 291 291 292 292 292
292 291 291 292 292 293 293 291 291 290 289 288 289 289 289 290 291 289 288 286 287 286 286 285 285 285 285 284 282 282 281 281 281 282 282 281 281 281 283 287 288 290 290
292 291 291 293 293 294 295 294 290 288 288 287 286 287 288 289 292 293 292 291 289 286 285 285 284 283 281 281 279 280 279 276 274 280 279 280 281 280 280 281 288 290 291
290 289 290 291 291 293 294 293 291 287 286 285 286 286 286 287 286 285 290 291 290 291 290 286 282 280 279 279 278 275 277 275 276 279 279 278 279 279 280 283 288 290 291
287 287 287 288 290 292 293 291 289 285 285 284 285 284 284 284 285 285 285 285 284 283 283 284 281 280 280 281 280 279 278 277 279 279 279 273 277 278 279 280 287 289 289
284 285 286 286 286 287 291 290 286 282 279 280 282 282 282 282 285 286 283 281 281 281 285 287 286 287 287 288 286 279 274 271 273 276 278 277 277 277 278 279 280 286 288
285 285 284 279 286 276 288 288 282 278 276 279 280 280 286 283 287 287 280 278 277 277 278 278 278 279 281 279 285 279 275 267 267 269 277 273 275 277 274 278 278 279 279

GFSMA_sfc_thetae_042.txt.gz
Theta_e
324 326 328 329 330 329 326 323 321 319 314 311 305 303 304 305 318 322 323 330 335 335 333 332 330 328 326 325 325 323 324 322 322 322 322 321 321 320 320 320 321 321 322
327 326 327 327 329 330 329 325 323 319 314 308 305 303 303 304 313 318 320 324 332 334 333 331 329 328 327 325 325 323 323 321 321 321 320 320 319 319 319 319 319 319 320
329 328 328 327 326 327 328 325 323 318 310 307 304 303 302 303 308 317 318 319 324 328 331 330 328 327 326 325 325 323 323 321 320 319 319 318 317 317 317 317 317 317 317
331 329 329 330 329 326 327 325 321 316 310 306 303 302 301 303 305 315 315 315 316 317 325 329 328 327 327 325 324 323 321 320 318 317 317 316 315 315 315 315 314 314 314
331 332 331 331 330 331 329 327 323 316 310 306 304 302 301 301 304 309 313 312 311 312 312 321 327 326 327 325 324 322 321 318 317 315 314 314 314 313 314 313 313 313 313
328 329 329 329 329 329 329 327 326 315 311 308 306 305 301 301 302 303 308 313 309 309 308 309 316 317 324 324 323 321 321 319 316 315 314 313 313 313 312 313 312 312 313
331 327 326 325 326 327 328 328 326 320 312 308 307 303 302 301 299 301 302 307 308 308 306 307 310 308 314 322 320 319 320 321 316 314 313 312 312 312 312 313 313 313 313
333 332 327 325 326 326 324 323 322 316 317 308 306 299 299 300 298 299 300 302 304 307 306 305 304 303 304 306 308 318 317 317 317 315 314 313 312 312 312 312 312 313 313
331 331 330 328 325 326 326 325 324 319 319 308 307 306 294 296 295 296 296 300 300 301 305 306 305 303 301 302 307 311 314 312 314 315 315 313 312 311 311 311 312 313 313
327 329 328 327 326 324 324 322 323 322 314 310 307 307 307 301 296 297 295 295 298 298 299 302 304 303 301 301 303 304 308 309 311 314 315 313 312 311 310 311 312 312 312
323 326 328 326 325 324 324 323 323 323 321 320 309 304 304 304 300 298 295 296 300 300 299 301 302 302 300 298 299 302 307 307 310 310 311 310 310 309 309 311 311 311 310
312 320 324 325 324 323 323 321 322 319 320 316 316 313 307 305 304 300 298 297 298 301 300 301 299 298 297 298 301 303 306 307 307 307 308 307 306 307 308 309 309 309 308
311 316 320 321 322 325 324 324 322 318 320 318 316 311 311 308 308 305 304 301 295 297 296 296 296 297 297 296 298 303 307 306 305 304 303 304 305 306 305 305 307 308 308
310 314 317 318 318 319 321 321 317 316 318 317 316 312 310 309 307 307 305 300 294 292 293 294 294 295 295 297 300 303 301 301 301 301 302 304 305 304 303 303 305 306 305
310 311 311 311 312 313 315 315 313 313 316 315 314 313 310 308 307 306 305 304 302 296 291 291 291 293 296 298 300 297 297 300 301 301 301 302 302 301 302 303 303 302 302
307 308 307 308 308 308 309 309 307 307 307 306 309 309 304 301 301 300 300 298 297 298 295 291 290 291 294 296 298 294 294 298 299 300 301 300 300 300 301 302 301 300 300
302 303 303 303 303 302 302 302 301 300 303 302 301 301 298 297 296 295 295 295 295 294 293 289 289 289 291 292 294 292 294 293 293 298 299 299 299 300 300 298 298 298 299
294 295 296 296 297 297 297 296 295 295 298 297 296 295 294 294 292 293 292 292 292 292 291 287 286 286 287 289 289 289 291 292 292 293 296 298 297 297 297 297 297 296 296
292 292 292 292 292 293 293 293 293 293 293 294 294 293 292 292 291 290 290 289 288 289 288 288 286 286 286 287 287 287 287 289 290 293 294 295 295 296 295 294 294 294 294
291 291 291 291 291 291 291 291 290 288 288 290 291 291 291 290 290 288 287 286 287 287 287 287 286 286 286 286 287 286 285 286 286 288 290 291 291 292 292 292 292 292 292
291 290 291 291 291 292 292 289 289 289 289 288 289 290 290 292 292 291 288 287 287 286 286 286 285 285 285 284 284 284 283 282 281 282 282 281 281 281 283 287 288 290 290
291 292 292 291 292 293 294 293 289 287 288 287 286 287 288 289 291 294 293 292 290 287 285 285 284 282 282 281 280 280 278 277 275 280 279 279 281 280 281 281 287 289 291
289 289 290 291 291 292 293 292 291 285 285 284 285 285 286 287 286 286 289 290 290 291 290 284 282 279 278 279 277 275 276 275 276 278 278 277 279 279 280 282 288 289 290
287 287 288 288 290 291 293 291 289 284 282 279 281 279 281 281 284 284 283 282 282 282 282 284 281 281 280 280 280 278 278 277 278 279 278 272 276 277 279 279 287 288 290
285 285 286 286 286 286 290 289 282 276 276 276 280 280 280 280 286 288 281 279 279 279 284 287 286 286 287 287 285 279 273 270 273 276 278 276 276 277 278 278 279 286 288
285 285 277 277 285 274 288 288 281 278 275 278 278 279 286 284 287 287 279 278 277 277 278 278 278 279 280 278 284 279 274 267 267 269 276 273 275 276 272 277 278 279 279

GFSMA_sfc_thetae_045.txt.gz
Theta_e
323 324 325 327 328 328 326 323 321 319 317 313 310 305 304 305 307 321 323 329 335 338 334 334 331 330 328 326 325 324 323 322 322 322 321 321 321 321 321 321 322 322 322
324 324 325 326 327 328 327 325 323 321 318 314 310 303 303 303 305 318 320 322 332 335 336 333 332 330 328 326 326 324 324 322 322 321 320 320 319 319 320 320 320 320 320
326 325 324 324 326 326 327 325 323 321 318 313 307 305 302 301 304 313 317 319 323 329 333 333 332 330 328 327 327 325 324 322 321 320 319 319 318 318 318 318 318 318 318
329 326 325 326 326 324 326 325 324 321 317 312 307 304 302 301 302 307 315 316 318 321 326 332 333 330 329 327 327 326 323 322 320 319 319 318 316 316 315 315 315 315 315
331 330 328 328 327 326 324 325 323 320 316 312 308 305 302 301 301 305 312 314 314 316 315 322 328 329 329 328 327 326 324 322 320 319 318 317 316 315 315 314 314 313 313
329 329 330 329 327 328 328 325 324 318 316 315 312 308 305 305 302 302 305 313 312 313 312 312 314 320 326 328 327 326 325 323 320 318 316 315 315 314 314 314 314 313 314
329 326 327 326 325 326 327 327 325 321 317 311 309 305 301 301 300 300 302 306 310 311 309 309 309 312 316 327 327 326 324 323 322 318 316 315 315 314 314 314 314 314 314
331 330 327 325 324 324 323 324 324 320 317 311 310 301 302 303 299 300 299 302 304 308 308 309 307 309 310 312 315 325 322 322 323 320 316 315 315 314 314 314 313 313 314
329 329 330 327 324 323 323 323 321 320 320 309 308 312 299 298 297 299 296 297 300 300 305 306 305 306 306 308 312 315 319 319 319 319 318 316 315 314 314 313 313 313 314
321 325 326 325 325 323 321 323 321 320 316 320 309 310 307 303 301 301 297 297 296 300 300 304 305 306 306 305 307 310 315 313 314 314 317 317 316 315 313 312 312 313 312
310 316 321 323 323 323 322 320 319 318 321 321 314 308 306 306 301 300 304 301 301 300 302 301 304 305 304 303 303 306 309 308 309 311 314 316 316 314 313 312 311 311 310
309 312 317 320 321 321 321 320 320 318 320 320 316 312 309 306 304 302 299 303 301 301 302 301 302 303 302 300 303 306 307 307 308 312 313 314 312 311 309 310 310 310 310
307 311 314 317 318 320 320 320 322 321 319 317 315 313 310 311 310 307 304 303 300 298 294 294 294 297 299 300 302 304 306 307 309 311 312 312 309 306 306 307 308 308 309
304 310 313 313 313 315 316 316 314 313 313 316 315 311 310 310 308 307 306 302 297 295 294 296 293 295 297 298 301 305 303 307 309 309 307 306 305 305 306 306 307 307 308
309 308 308 308 308 310 311 311 311 311 314 313 312 312 310 309 307 306 305 304 303 295 295 292 289 291 293 297 300 302 301 306 306 305 304 303 304 304 305 304 305 305 306
303 304 304 304 304 304 304 303 302 304 306 305 305 304 302 300 299 298 298 299 298 298 294 293 291 290 293 297 299 297 298 303 303 303 303 303 303 303 302 302 303 304 302
296 298 299 300 299 299 299 298 297 299 301 300 299 298 296 296 295 295 295 295 295 295 292 291 290 290 291 293 294 293 296 295 295 300 302 302 302 301 300 301 301 300 301
293 293 294 294 295 295 294 294 294 294 294 294 295 295 294 295 293 293 293 292 292 292 291 288 287 287 287 290 290 291 292 294 292 294 297 298 298 299 299 299 299 298 298
291 291 292 291 291 291 291 291 291 290 290 291 290 290 290 290 291 291 290 289 289 290 288 289 286 287 287 287 286 286 287 289 291 293 295 297 297 297 297 297 296 295 295
290 290 291 291 290 289 289 289 288 287 287 288 289 289 289 290 288 287 287 286 287 288 288 287 287 286 287 287 287 287 286 288 287 289 290 291 292 292 292 293 293 293 293
290 289 290 291 291 292 291 287 288 289 289 289 288 289 291 292 293 291 288 287 287 287 287 286 285 285 285 285 284 285 284 283 281 281 282 281 281 281 282 287 288 289 290
291 291 291 291 292 293 294 293 290 288 288 287 286 286 288 289 290 294 294 293 290 286 285 285 284 282 280 280 279 280 278 275 275 279 278 279 281 280 280 281 286 289 290
290 289 290 291 291 292 293 292 290 285 281 281 281 281 284 285 284 284 287 288 288 289 290 283 280 279 278 278 276 275 276 274 276 278 278 276 278 278 279 281 287 289 290
287 288 288 289 289 291 292 291 288 280 278 278 279 277 279 280 282 283 281 281 280 280 282 283 280 279 279 280 279 278 278 276 278 279 278 272 276 277 278 279 286 288 289
285 285 285 284 278 279 289 287 281 275 276 275 279 279 280 280 287 287 280 279 279 279 283 286 286 286 287 287 284 279 280 270 273 275 277 276 276 276 278 277 279 287 288
285 279 274 274 284 273 288 287 280 278 274 277 277 279 285 284 287 287 279 278 276 277 278 278 278 278 279 278 282 279 274 266 267 268 276 273 275 276 272 277 278 278 279

GFSMA_sfc_thetae_048.txt.gz
Theta_e
322 323 324 325 326 327 326 323 321 319 317 315 311 308 305 302 303 312 321 327 333 338 338 335 334 331 329 327 326 324 323 322 321 322 321 320 321 321 322 322 322 323 323
323 323 322 324 325 326 326 325 322 321 319 317 315 311 305 302 302 307 318 321 329 334 336 335 334 332 330 328 326 325 324 322 322 322 321 320 319 319 320 320 320 321 321
325 323 323 322 324 325 326 325 324 321 319 318 313 310 306 303 302 304 313 318 321 328 333 335 334 333 331 329 327 326 324 323 322 321 320 319 318 318 318 318 318 319 319
328 325 323 323 324 324 324 324 323 321 319 317 315 312 308 303 302 302 308 315 317 321 326 333 335 333 332 330 329 327 325 324 322 321 320 319 318 317 316 316 315 316 316
330 328 326 326 324 323 322 323 322 322 319 318 316 314 308 305 305 303 304 310 314 318 318 324 329 330 332 330 329 328 327 324 323 321 320 319 318 316 316 315 315 314 314
331 329 329 327 326 325 324 322 322 319 320 318 316 313 309 307 305 302 303 309 312 314 315 315 316 320 327 330 329 328 327 326 324 321 319 318 317 316 316 315 315 314 314
326 326 328 326 325 325 326 325 323 321 319 311 313 314 307 305 303 303 302 303 306 310 310 311 311 311 315 328 329 328 327 327 326 323 320 318 317 316 316 315 315 315 315
331 328 325 324 323 323 323 322 322 319 322 312 316 307 309 308 302 300 299 300 300 306 308 308 308 308 310 312 318 327 327 327 326 325 322 318 317 316 316 315 315 315 315
328 329 329 328 325 322 322 322 320 320 321 310 309 316 306 304 302 305 300 298 297 299 303 306 306 306 307 309 315 319 325 325 324 324 325 320 318 317 316 316 314 314 314
310 316 322 324 324 323 321 321 320 318 316 319 310 311 309 305 304 304 303 300 299 299 299 303 304 305 307 308 310 312 317 320 320 322 322 320 320 318 317 316 314 314 314
309 310 311 315 318 320 320 320 318 317 317 320 316 309 308 305 303 303 304 306 305 301 300 301 303 303 304 306 305 308 314 316 318 318 316 315 318 320 317 315 314 312 311
307 311 313 315 316 318 319 319 318 317 321 321 319 314 310 306 303 302 301 301 303 301 300 301 299 299 301 302 305 308 312 313 316 315 315 314 317 316 315 312 313 311 310
304 305 311 314 315 319 321 319 317 318 317 317 316 315 313 311 310 307 305 304 302 299 297 298 295 295 298 297 300 307 309 312 313 315 316 317 316 314 312 311 309 309 309
305 306 309 309 310 312 313 317 316 315 313 315 313 313 312 310 309 308 306 303 300 297 294 294 295 292 294 294 298 304 304 310 312 314 316 316 313 311 308 306 307 308 309
306 305 305 306 306 307 308 311 311 310 309 309 308 308 307 303 304 304 304 304 302 297 296 296 291 290 291 294 298 299 303 305 309 311 311 308 304 304 304 306 307 308 307
300 301 301 302 301 301 302 301 304 306 305 304 304 302 300 300 299 298 299 299 299 298 295 295 292 292 294 297 298 298 299 303 306 309 306 303 303 304 305 306 304 304 304
294 295 297 297 297 296 297 297 297 301 301 299 298 297 295 297 296 295 296 296 295 295 293 291 290 290 291 293 293 295 295 295 296 301 302 302 303 303 303 302 302 303 302
292 292 293 293 293 293 292 292 292 292 292 292 291 291 291 294 290 290 290 289 288 291 291 289 287 287 287 290 291 291 293 294 293 295 298 299 299 300 300 301 300 300 300
290 291 291 290 290 290 289 289 289 288 288 288 288 288 288 288 287 287 287 288 289 290 289 289 287 287 287 288 287 287 288 289 291 293 295 297 298 299 299 299 299 299 296
291 290 290 290 289 288 288 287 288 289 289 290 290 291 289 288 289 289 288 287 288 288 288 287 287 286 287 287 288 287 286 288 288 290 291 292 293 293 293 293 293 293 293
292 291 292 292 292 292 290 289 290 290 289 289 289 289 291 293 294 292 289 288 288 287 287 286 286 286 285 285 284 283 281 281 281 281 281 281 281 281 282 286 287 289 290
291 292 291 291 291 292 293 293 290 288 288 287 286 285 287 289 289 294 294 293 290 284 282 279 278 280 279 278 278 278 277 274 274 279 278 278 280 280 280 280 286 288 290
290 290 291 291 291 292 293 292 289 282 280 279 279 280 283 285 283 282 286 287 287 289 289 281 279 278 277 278 276 273 275 273 276 278 278 276 278 277 279 281 286 288 290
288 288 287 287 286 289 291 290 287 278 276 275 277 275 278 279 283 281 280 280 279 280 282 282 279 279 279 279 279 277 277 276 278 279 278 271 276 277 278 279 285 287 289
286 285 281 278 276 277 288 287 280 273 275 274 278 279 280 280 288 287 280 278 278 279 283 286 285 286 286 286 284 278 273 270 272 275 277 276 276 276 277 277 279 286 287
284 279 274 272 284 273 288 286 279 277 274 277 277 278 285 284 286 286 279 277 276 276 277 278 277 277 278 277 282 279 274 266 266 268 275 273 274 275 272 277 278 279 279

GFSMA_sfc_thetae_051.txt.gz
Theta_e
332 333 334 334 336 337 337 336 334 332 330 328 326 323 320 317 314 315 322 327 331 337 340 338 335 334 331 328 326 325 324 322 321 322 322 321 321 322 322 322 323 323 324
332 331 330 331 332 334 336 335 334 333 332 330 329 327 323 318 314 313 316 322 328 333 337 338 336 335 333 331 329 326 325 323 322 322 321 320 319 320 320 321 321 321 322
333 332 330 330 330 332 333 334 334 333 331 330 329 328 326 322 316 314 314 318 324 327 331 336 336 335 334 333 330 328 327 324 323 322 321 320 319 319 319 319 319 319 320
335 333 331 331 332 331 331 331 331 331 330 329 330 330 328 326 323 319 314 314 319 322 327 332 335 336 334 333 332 330 328 325 324 322 322 321 319 318 318 318 317 317 317
336 335 334 334 333 331 330 330 330 329 329 329 328 329 328 326 326 322 318 315 315 319 322 326 329 332 334 333 332 330 329 328 325 323 322 321 319 318 318 317 316 316 315
336 336 335 335 333 331 331 330 329 330 329 329 326 325 326 324 322 321 321 317 315 316 318 321 324 327 328 331 331 330 330 328 327 325 323 321 320 319 318 317 316 316 315
333 334 334 333 332 331 332 332 331 329 328 326 321 324 323 324 321 320 319 315 314 314 315 317 320 322 325 326 329 330 329 329 328 327 324 322 320 319 318 317 317 316 316
337 334 331 331 331 331 330 330 330 328 326 321 322 313 314 319 317 315 313 310 311 310 311 313 315 317 320 322 323 327 329 329 329 329 327 323 321 319 318 318 318 317 316
324 332 334 332 333 329 329 330 328 327 325 320 320 320 311 310 310 318 312 307 307 308 309 311 312 313 315 317 316 318 322 326 327 327 327 326 322 320 319 318 318 317 316
313 314 319 326 329 329 329 329 328 327 326 323 316 316 316 312 310 308 312 309 307 309 308 308 310 311 312 313 313 314 317 319 324 325 326 325 324 322 320 318 318 317 315
312 316 317 316 319 323 325 327 327 325 325 324 320 315 313 310 312 311 306 311 314 315 312 310 309 309 310 310 310 311 313 317 322 324 325 324 321 320 319 320 319 317 315
311 312 315 319 322 323 322 322 324 324 324 323 323 320 317 315 312 308 305 305 307 313 311 310 309 308 308 308 307 308 309 312 317 322 324 324 320 318 318 318 319 317 317
309 310 313 317 318 320 323 324 323 322 322 321 320 319 316 315 313 310 309 307 305 309 309 308 304 303 302 303 304 304 306 309 313 317 322 325 319 317 316 317 317 315 312
309 311 312 313 313 315 318 320 318 318 320 318 316 316 315 313 313 312 309 307 303 302 305 307 300 300 300 301 302 302 304 306 308 312 317 319 318 316 315 314 309 308 309
306 307 308 309 309 310 313 314 314 312 312 311 312 312 309 307 309 310 308 308 305 301 302 303 300 297 297 300 301 303 303 303 306 307 309 311 308 308 307 306 305 306 308
301 303 304 304 304 305 306 309 309 308 307 307 306 305 303 303 303 304 304 305 305 304 300 298 294 294 297 298 299 299 300 302 305 307 307 305 305 304 304 304 305 304 304
297 298 299 300 300 300 301 303 303 304 304 302 301 301 299 300 300 300 299 299 298 298 296 293 293 292 294 295 295 297 296 296 297 302 303 303 302 302 302 303 302 302 303
295 296 296 296 296 296 297 298 297 297 297 296 296 296 295 295 295 295 295 294 294 294 294 291 290 290 291 292 292 292 293 294 294 296 299 300 300 300 300 300 300 301 301
294 294 294 293 293 293 293 293 293 292 292 292 293 293 292 293 293 293 292 292 292 292 293 293 290 290 291 289 289 290 290 291 293 294 295 296 297 298 299 299 299 299 299
293 293 293 292 292 291 291 291 292 292 292 292 293 293 293 293 292 291 290 290 290 291 291 290 289 289 289 289 289 288 289 289 289 291 291 292 293 292 293 293 294 293 293
293 293 293 293 293 293 291 291 292 291 291 290 290 291 292 294 294 293 292 291 291 290 289 289 288 289 288 288 286 287 287 286 287 286 287 288 288 288 289 289 288 289 290
292 292 292 293 293 293 294 293 291 290 289 288 287 287 288 289 289 293 293 293 291 289 286 286 286 285 284 284 285 284 284 284 283 286 285 285 287 286 286 287 287 288 289
291 291 292 292 292 292 293 292 289 286 284 284 284 286 286 286 286 285 287 287 288 289 289 287 284 284 284 284 284 283 283 283 283 285 284 282 284 283 286 285 286 288 290
289 289 288 289 290 290 291 289 286 283 282 282 283 283 285 285 287 284 284 284 284 285 286 285 285 285 285 285 285 284 284 283 284 284 284 280 283 283 285 286 285 287 289
286 285 284 284 284 285 288 287 283 282 281 281 283 284 285 286 288 286 283 282 281 283 284 285 285 285 285 285 286 285 283 281 280 281 282 281 282 282 283 284 285 286 287
285 284 281 281 285 282 287 286 283 282 280 281 281 282 285 286 286 286 283 282 280 280 282 282 281 280 280 281 283 283 283 280 279 279 281 281 281 281 281 284 284 285 285

GFSMA_sfc_thetae_054.txt.gz
Theta_e
336 334 332 333 335 337 337 337 337 336 335 335 334 332 331 329 325 323 322 327 330 334 338 340 338 336 333 331 327 326 324 323 321 322 322 321 321 322 322 322 323 323 323
338 337 336 333 332 335 337 337 337 337 337 337 336 335 334 332 328 325 324 325 326 330 334 337 338 336 336 333 331 328 327 325 323 323 322 321 320 320 320 321 321 320 322
339 338 338 337 336 336 336 337 337 337 337 337 336 336 336 335 334 330 327 326 326 326 329 333 336 336 336 335 333 331 329 326 325 322 323 321 320 320 319 319 319 319 320
340 340 339 338 339 338 337 337 337 336 336 336 335 336 336 336 335 335 334 330 327 325 327 329 332 335 336 335 335 333 331 329 327 324 324 322 321 320 319 319 318 317 318
341 340 340 340 340 339 338 337 336 336 335 336 335 335 336 335 335 334 334 333 330 326 325 326 327 330 334 335 335 334 332 330 328 327 325 323 321 320 320 319 317 317 316
341 341 341 341 341 340 338 338 336 336 335 335 333 332 334 334 334 333 332 331 331 327 325 324 324 325 326 331 334 334 332 331 330 328 326 324 322 321 320 319 318 317 317
341 340 341 341 341 339 338 338 337 335 335 335 327 329 332 331 331 330 330 327 325 324 323 323 322 322 323 327 329 332 332 331 330 330 328 326 324 322 321 320 319 318 317
343 341 341 340 340 338 338 337 336 332 330 331 326 319 319 322 325 325 325 322 321 320 319 318 319 319 320 321 323 327 329 331 331 330 330 329 325 323 322 321 319 318 318
326 333 337 336 336 335 332 334 334 332 328 328 326 323 318 313 319 324 323 320 319 317 318 317 316 317 318 318 319 320 320 323 327 330 329 327 328 324 322 320 320 319 319
318 318 318 321 327 330 329 330 331 330 329 324 323 324 325 323 316 312 320 320 322 320 319 320 318 317 316 317 316 314 315 316 321 324 327 327 326 324 325 322 321 320 319
316 318 321 323 321 321 323 325 327 327 327 325 325 322 322 317 315 313 311 314 318 319 319 318 317 316 315 314 314 313 310 313 316 320 324 326 326 325 324 324 323 320 319
315 316 315 322 324 325 325 325 326 325 325 327 326 325 320 319 315 314 310 310 311 315 318 317 314 312 310 310 309 306 307 309 312 316 321 325 325 326 324 321 321 322 320
314 316 317 319 322 323 323 323 324 324 325 325 323 322 321 318 316 314 312 312 311 314 313 315 309 308 307 308 308 303 306 307 309 313 317 321 321 321 323 320 317 318 321
313 315 316 317 318 319 322 324 323 322 321 320 320 319 318 317 317 315 314 313 307 309 310 310 306 306 306 306 305 304 306 305 306 308 311 312 314 315 319 317 315 313 312
310 312 313 314 314 315 316 316 316 315 314 314 313 315 314 313 315 314 312 313 308 302 303 305 307 303 302 304 302 304 303 303 307 307 308 309 309 309 309 309 309 308 308
307 308 310 310 310 311 312 313 312 312 311 310 310 310 310 309 308 308 308 307 308 306 301 304 300 297 300 301 300 301 301 300 302 307 307 306 306 306 305 305 306 305 305
304 305 305 306 306 307 309 309 307 307 307 306 306 307 305 306 306 306 306 306 305 304 300 298 297 296 297 297 298 299 300 299 298 300 302 302 302 302 302 303 303 302 302
302 302 303 303 303 303 304 305 304 303 304 303 303 303 301 301 301 302 303 301 300 299 299 295 295 296 294 296 295 295 295 297 299 297 299 300 300 300 300 300 300 300 300
301 300 300 300 300 300 300 301 300 299 299 299 299 299 299 299 298 298 297 296 296 296 296 296 294 295 294 292 291 293 293 293 295 294 295 296 296 296 297 299 299 299 299
297 297 298 298 297 297 296 296 296 296 296 296 296 296 296 296 295 295 294 293 294 295 295 294 293 293 293 291 291 291 294 295 294 293 292 290 291 291 292 293 294 293 292
295 295 295 296 296 295 294 294 294 294 294 293 293 293 295 295 294 294 295 294 294 294 294 292 292 292 292 292 290 290 289 290 291 290 289 291 290 291 292 291 290 290 291
293 294 294 294 294 294 295 294 294 293 293 292 291 291 292 291 292 293 293 293 292 291 291 291 291 289 289 288 289 287 287 286 285 289 287 287 289 288 289 289 288 288 289
293 293 294 294 293 293 293 292 291 291 290 289 290 290 289 289 289 290 289 288 289 289 289 289 287 287 286 287 286 286 286 285 285 287 285 284 287 286 289 288 287 288 289
292 292 292 292 292 292 291 289 288 287 287 286 287 287 288 289 288 286 286 286 287 288 288 287 288 288 288 288 288 287 286 285 286 286 286 282 287 286 288 289 286 287 288
289 288 290 289 289 290 289 287 286 287 286 286 287 287 288 288 288 286 285 284 284 285 285 285 285 285 285 285 286 286 285 283 282 283 285 283 285 284 286 287 288 286 287
287 287 286 287 287 288 287 286 285 285 284 283 284 285 286 287 287 286 286 284 282 283 284 284 284 282 282 283 283 284 285 282 282 283 284 282 283 283 283 288 287 288 288

GFSMA_sfc_thetae_057.txt.gz
Theta_e
335 332 331 331 332 333 334 335 336 335 335 335 335 334 333 332 331 328 326 329 330 331 334 338 340 338 335 333 329 327 326 324 322 322 322 321 322 322 322 323 323 323 323
337 336 334 332 331 333 335 335 336 337 336 337 336 336 335 335 333 331 329 329 327 328 330 334 336 336 337 337 334 331 329 327 324 322 323 321 320 320 320 321 321 320 321
339 338 337 337 336 335 335 336 337 337 336 336 336 336 336 336 336 335 334 332 330 326 329 329 332 335 336 336 336 335 331 329 327 325 323 322 321 320 320 319 320 319 320
340 340 339 339 340 339 338 337 336 336 336 335 335 336 335 335 335 335 336 336 334 329 329 331 331 331 334 335 336 336 334 331 329 328 325 325 323 321 320 320 319 318 318
340 340 340 340 341 340 339 337 337 335 334 335 335 335 335 335 335 334 333 334 334 333 330 329 329 329 331 334 335 335 334 333 331 329 327 326 324 322 321 321 319 318 317
341 341 340 339 338 338 338 338 335 338 336 335 333 332 334 335 335 333 332 331 330 331 330 328 328 325 325 328 330 333 334 333 332 331 330 327 326 324 322 321 320 318 317
341 341 341 339 339 337 336 337 337 335 334 335 331 329 331 332 330 330 330 329 327 326 325 324 324 324 324 329 329 328 331 333 332 331 331 330 328 326 324 322 320 319 318
342 340 340 339 339 338 338 336 334 333 332 333 327 321 319 322 326 326 327 325 323 323 322 321 320 320 321 321 322 323 324 329 331 331 330 329 330 328 326 324 322 321 319
332 335 338 337 336 336 334 334 333 331 327 328 328 323 318 314 319 323 324 323 322 321 322 320 319 319 319 319 319 318 316 317 321 325 327 328 327 327 327 325 324 321 320
319 319 320 321 323 329 331 330 330 330 330 325 325 325 325 324 316 313 321 321 321 319 321 321 318 318 317 316 316 311 311 313 318 320 322 326 327 326 328 326 325 323 321
317 318 320 322 323 322 321 322 324 326 327 323 322 323 323 318 316 313 310 313 318 319 318 319 317 315 314 313 310 308 309 312 315 318 321 323 325 327 327 328 326 324 323
316 316 316 318 322 323 324 325 326 325 325 324 322 324 322 316 314 313 311 314 311 314 317 316 313 311 310 310 307 306 307 309 311 315 318 320 322 324 324 326 326 324 322
314 315 317 317 319 322 323 322 321 321 322 323 323 322 323 320 316 314 312 311 310 313 313 312 309 308 308 308 306 305 308 307 309 312 314 316 316 316 317 321 323 320 321
313 315 315 316 317 318 320 321 323 321 321 322 321 318 317 316 316 314 313 311 307 309 310 310 307 306 305 305 303 306 304 305 308 310 309 310 312 314 317 319 319 318 316
311 311 313 314 315 316 317 316 316 315 315 314 314 314 313 312 313 314 313 312 309 303 304 305 304 303 302 303 301 302 301 303 306 309 310 310 309 309 311 316 314 313 312
308 309 310 311 312 312 313 314 313 313 312 311 311 311 310 310 310 310 310 309 309 307 303 304 301 299 300 301 301 300 300 301 301 304 305 305 306 307 307 307 307 307 307
306 306 307 307 308 308 309 311 310 309 309 308 309 308 307 308 307 307 307 306 306 304 302 299 300 298 298 297 298 298 298 299 300 300 302 302 303 302 303 303 304 304 303
304 303 304 304 305 305 306 307 306 306 305 305 305 305 303 303 303 303 303 302 301 300 299 297 295 295 294 296 296 294 294 296 297 298 299 299 299 300 301 301 301 301 301
302 302 302 302 302 302 302 303 303 302 302 301 301 301 300 301 299 299 298 298 297 297 297 296 294 296 295 292 291 293 293 293 295 295 295 295 296 296 297 298 298 298 299
300 299 299 299 299 299 298 298 299 299 298 297 297 297 297 297 296 296 295 295 295 295 296 295 293 293 293 293 291 290 290 293 291 292 293 291 292 292 292 293 294 293 293
297 296 296 297 297 296 296 296 296 296 295 294 294 294 295 295 295 295 295 294 294 293 292 292 292 292 291 291 288 288 286 287 289 288 287 288 287 288 289 290 291 291 291
295 295 294 295 295 295 295 295 295 294 294 293 291 292 292 292 294 294 294 293 292 290 289 289 289 288 288 286 286 285 284 283 283 287 284 284 286 284 285 285 289 289 290
293 293 294 294 294 293 294 294 294 293 292 291 291 291 290 289 290 290 289 289 290 289 288 287 285 285 284 285 284 284 284 283 282 284 283 281 284 283 285 287 288 288 290
293 293 293 293 292 292 292 291 290 289 288 288 288 288 289 288 287 287 286 286 286 287 288 287 286 286 286 287 286 285 284 283 284 284 283 279 283 282 285 286 288 287 289
290 289 292 291 290 290 290 288 288 287 286 286 286 287 288 288 288 287 286 283 283 284 286 286 285 285 285 285 285 284 282 281 280 280 282 280 282 281 283 284 285 287 288
288 288 287 288 289 288 288 287 286 286 284 283 284 285 287 287 287 287 285 284 281 282 283 283 283 283 282 282 284 282 282 278 280 280 281 279 280 281 279 284 283 284 284

GFSMA_sfc_thetae_060.txt.gz
Theta_e
326 325 324 325 325 326 327 328 329 329 327 328 328 327 326 326 324 322 318 326 329 330 330 335 340 338 337 334 331 329 327 326 323 322 323 321 322 322 323 324 324 324 323
330 329 326 324 323 325 327 327 328 329 330 329 329 329 329 328 327 326 323 322 328 329 330 329 334 336 337 338 337 333 330 328 327 324 324 322 320 320 320 321 321 322 322
332 330 330 328 327 325 327 328 329 330 329 330 329 330 330 329 329 329 327 324 325 326 329 330 331 333 335 336 336 337 335 331 329 327 325 324 323 321 321 320 320 320 320
334 332 332 332 333 331 330 329 329 328 328 329 330 331 331 331 331 331 330 328 328 325 326 331 333 332 332 334 336 336 335 334 331 329 327 325 324 323 321 320 319 319 319
334 334 333 334 334 334 333 333 332 331 329 330 330 329 330 328 328 329 326 327 327 328 325 328 328 329 330 330 332 334 335 334 333 332 330 327 326 324 323 322 320 319 319
336 334 334 335 335 334 334 333 332 333 330 330 330 329 327 329 328 327 326 327 323 321 321 321 321 320 325 328 329 329 331 333 333 332 331 330 328 327 324 323 322 320 320
338 336 334 335 335 334 333 334 332 330 329 330 328 326 325 327 325 325 325 324 318 317 315 315 315 315 316 327 328 327 329 330 332 331 330 331 330 329 327 325 323 321 320
339 338 337 337 337 335 335 334 332 330 330 329 324 319 316 316 318 322 318 318 314 315 314 314 313 313 313 313 317 318 320 323 324 326 327 329 328 329 329 328 325 323 321
325 326 331 333 334 334 332 332 331 329 326 326 326 321 314 309 312 316 317 315 313 313 313 313 313 312 311 311 309 310 314 316 320 323 323 325 327 327 327 329 327 325 323
316 316 316 315 314 318 324 325 327 325 323 322 321 325 324 321 313 309 313 314 313 313 312 314 312 310 310 308 307 309 311 314 318 321 323 324 324 325 326 327 328 326 325
314 314 315 315 316 317 315 315 316 320 321 319 317 319 320 318 316 313 310 312 314 313 311 313 310 306 306 304 303 305 310 312 315 317 320 322 322 324 327 326 327 327 326
311 313 313 313 314 317 318 318 318 318 317 317 320 318 317 312 309 308 310 308 310 311 309 307 305 303 304 303 305 306 308 309 311 314 317 318 319 320 320 322 324 324 328
309 310 312 312 313 315 317 318 317 318 319 318 318 316 318 317 313 311 309 310 308 309 308 303 302 302 304 301 300 305 305 308 312 313 314 314 313 314 316 318 321 322 325
308 310 310 311 312 314 315 316 317 318 317 317 317 315 316 317 315 314 312 310 306 306 306 299 299 299 299 299 301 302 299 306 309 312 314 314 312 313 317 319 319 319 320
308 306 308 309 310 311 312 314 314 313 313 313 313 313 312 312 313 311 312 310 307 301 299 296 295 296 296 298 299 298 299 303 305 307 307 308 308 310 311 316 316 316 315
304 304 305 306 307 308 308 311 311 312 310 309 310 309 308 308 308 308 307 307 304 303 296 296 294 293 295 298 299 298 299 300 302 304 305 304 305 305 307 309 309 309 310
301 302 303 303 303 304 304 308 308 308 308 307 307 307 305 305 305 301 301 300 300 297 294 295 293 292 293 292 294 295 295 295 297 300 302 302 302 303 303 303 304 304 305
300 300 300 300 301 301 301 302 304 304 304 303 304 303 300 301 298 297 298 299 298 296 293 291 292 290 293 291 289 293 293 295 292 297 298 299 299 299 300 301 301 302 302
299 299 298 298 298 298 298 297 299 298 298 297 297 298 296 298 297 296 295 294 289 294 293 292 290 293 292 291 290 288 289 289 293 295 295 295 294 295 297 298 298 298 299
297 295 295 296 296 295 295 295 295 294 293 294 294 294 294 296 294 290 291 290 293 293 294 292 291 290 290 291 286 285 284 287 286 289 290 291 292 292 293 293 294 293 294
294 294 295 296 296 296 296 295 296 295 294 293 293 294 292 294 296 296 293 292 292 291 290 289 289 289 289 288 282 282 281 281 282 283 282 282 283 283 285 289 291 291 291
292 293 294 294 294 295 296 296 295 294 293 292 291 291 291 293 294 295 294 294 292 289 288 287 287 284 281 280 281 280 279 276 276 281 279 279 281 280 281 281 289 289 290
291 293 293 294 293 293 295 295 295 292 290 290 289 289 289 289 289 288 290 291 289 289 288 283 280 279 279 280 280 279 279 277 278 280 279 277 280 280 281 285 289 288 289
292 292 293 292 292 292 293 293 291 285 283 284 285 285 286 284 285 285 284 283 283 284 284 285 281 281 281 282 281 281 280 279 280 280 279 274 279 279 281 282 289 289 290
290 288 291 290 288 289 291 290 286 280 280 281 283 285 285 285 289 287 283 281 280 282 287 286 285 285 285 285 284 279 276 275 275 277 279 278 278 278 280 281 282 288 289
288 287 286 286 289 284 289 288 286 282 281 281 282 284 287 286 288 287 282 280 278 279 280 281 280 281 281 280 284 279 276 270 272 273 278 275 278 278 274 280 281 282 282

GFSMA_sfc_thetae_063.txt.gz
Theta_e
323 323 325 326 326 328 328 328 327 326 324 325 325 324 324 323 323 322 316 325 329 332 331 332 339 339 337 336 333 330 328 327 325 324 323 322 322 322 323 323 323 323 324
324 325 322 321 321 323 324 324 325 327 327 327 327 327 327 326 325 325 323 320 329 331 333 331 332 334 336 337 337 336 331 330 328 325 325 323 321 320 321 321 321 322 322
328 328 326 323 322 322 324 325 326 327 327 328 327 328 329 330 329 329 326 324 324 327 331 333 333 332 333 335 336 337 335 333 331 328 326 325 323 321 321 320 320 321 320
331 329 329 329 329 326 325 326 327 326 326 327 328 329 331 331 330 327 327 327 327 324 326 332 334 332 332 332 333 336 336 334 333 332 329 326 326 323 322 321 321 321 320
332 332 331 331 332 331 330 330 331 330 328 329 330 330 328 326 326 328 325 325 325 325 325 327 328 328 330 329 330 331 332 333 333 332 332 330 327 326 324 323 322 321 320
332 332 332 332 335 333 333 332 331 332 330 329 330 328 329 328 326 327 326 326 321 320 318 317 318 318 325 328 328 329 330 330 331 331 331 331 330 329 327 325 323 322 321
336 334 333 334 334 333 332 333 332 330 328 329 327 326 323 327 325 325 324 320 316 314 313 312 312 312 314 323 324 324 326 326 326 327 329 329 330 330 330 328 326 324 322
338 337 336 336 336 334 334 334 332 330 329 330 323 319 317 316 317 317 316 314 312 313 312 312 311 310 311 311 312 317 319 322 324 324 324 325 327 328 328 330 328 326 324
322 324 328 332 333 333 332 332 331 329 326 324 324 323 315 308 311 315 315 313 312 311 310 311 310 310 307 305 307 309 314 316 320 323 324 324 324 325 327 327 328 328 325
316 317 316 315 313 314 316 322 324 321 319 318 318 321 320 320 313 309 312 313 311 310 312 312 309 307 304 303 306 310 311 313 317 319 321 322 322 324 325 327 327 328 327
314 314 314 313 314 316 315 313 313 314 318 316 315 314 315 316 316 314 309 309 312 312 312 309 307 304 303 302 302 306 309 312 315 316 318 320 321 321 323 323 324 326 328
311 312 312 313 313 314 316 317 317 315 315 314 315 316 314 311 309 308 307 307 307 309 306 305 304 302 301 300 305 307 307 310 314 315 316 316 316 316 318 319 321 322 324
308 310 311 310 311 312 314 315 315 314 314 313 313 313 314 313 314 313 311 308 306 308 305 303 300 300 301 298 301 302 306 308 311 317 318 316 314 315 318 318 318 320 322
308 309 310 310 310 311 312 313 313 314 313 315 316 317 316 314 314 313 311 308 306 307 305 301 297 296 297 297 301 301 299 306 308 310 311 312 312 313 316 319 317 319 321
306 305 306 307 308 309 309 310 312 312 311 312 312 313 312 312 313 313 312 311 308 300 303 295 296 294 295 296 298 297 296 303 305 306 306 306 306 308 311 312 315 316 317
304 304 304 305 305 306 306 308 310 312 311 309 310 309 308 308 308 307 307 306 306 304 299 295 292 291 293 296 297 294 298 299 301 302 304 304 304 305 306 307 308 310 310
302 301 302 302 302 302 302 302 308 308 307 307 307 307 304 305 304 302 301 300 298 298 298 295 295 293 294 290 293 294 294 292 294 299 300 301 301 301 303 304 304 305 306
300 301 300 300 300 299 299 299 304 305 304 304 304 303 301 301 299 299 297 298 297 296 293 294 293 286 289 291 288 289 292 294 291 296 297 298 298 299 300 301 301 302 302
299 299 298 298 298 297 296 296 300 300 299 299 299 299 298 298 297 296 296 295 294 292 288 290 289 290 292 290 285 286 288 288 292 294 294 294 294 294 296 298 298 298 298
296 295 295 296 296 295 295 295 295 295 294 294 294 293 294 296 295 293 290 289 291 289 292 291 289 290 291 290 286 284 283 284 284 287 289 291 292 292 293 293 294 293 294
294 294 294 295 295 296 296 295 296 295 294 293 293 293 294 296 296 295 292 291 292 291 290 289 288 289 289 287 282 281 280 280 281 281 280 281 281 281 283 289 291 291 291
291 292 292 293 294 295 296 297 296 294 293 292 291 292 293 295 295 296 295 294 292 289 288 288 287 286 281 280 280 279 279 275 276 280 278 278 280 279 280 280 289 289 289
289 290 291 293 293 294 296 297 296 293 291 290 289 289 289 290 289 288 292 292 290 290 289 283 280 279 279 280 280 279 278 276 277 279 278 276 279 279 280 284 289 289 290
288 290 292 293 292 293 294 295 293 289 288 288 288 286 284 283 284 285 284 283 283 283 284 284 282 281 281 282 281 281 280 279 279 279 278 274 277 279 280 280 289 289 290
291 289 291 290 289 289 292 292 285 280 281 281 283 283 285 284 288 288 282 281 280 282 287 287 286 286 285 286 284 280 277 274 275 277 278 277 277 278 279 280 281 289 289
289 289 287 287 290 287 291 290 285 281 281 281 281 283 289 286 290 288 282 281 278 278 280 280 279 281 282 280 284 279 276 269 271 272 278 275 277 277 274 279 280 281 281

GFSMA_sfc_thetae_066.txt.gz
Theta_e
326 326 326 326 325 326 326 326 325 325 324 324 323 322 322 322 321 321 318 325 331 334 333 332 337 340 338 337 335 332 330 328 325 324 323 322 322 322 322 323 323 323 324
323 322 321 325 324 324 327 325 326 325 324 324 325 325 325 325 324 324 323 320 328 332 335 333 333 334 336 337 337 336 334 331 330 327 326 324 322 320 321 321 321 322 322
324 324 323 319 320 320 322 322 323 325 325 326 325 326 326 329 328 329 328 326 324 327 331 334 335 332 333 334 335 336 336 334 333 331 328 327 325 322 322 321 321 321 320
327 326 326 326 324 322 321 322 324 324 325 325 327 327 330 330 329 327 325 325 325 327 327 331 335 333 331 331 331 332 334 335 333 333 332 329 327 325 323 322 321 322 321
330 329 328 329 329 328 326 327 328 329 328 328 329 329 329 329 328 328 326 325 324 323 322 327 327 327 328 328 329 330 331 331 332 331 332 332 329 328 326 324 323 322 322
331 330 330 331 332 332 332 331 330 331 330 330 328 329 327 329 327 325 325 325 320 319 318 316 315 319 328 329 329 330 329 328 328 329 330 330 331 330 329 327 325 324 322
332 330 330 331 331 331 332 332 331 330 330 327 327 322 323 323 324 322 320 321 315 314 312 313 311 312 315 320 322 322 324 325 326 326 325 327 328 328 330 330 328 326 324
335 334 333 333 334 333 332 333 332 330 329 328 320 316 314 314 314 315 313 312 311 314 313 312 310 310 308 309 312 317 319 322 323 324 324 324 325 325 328 328 329 328 326
334 334 334 334 333 333 331 331 329 328 323 322 321 318 310 307 310 313 312 312 313 312 311 309 309 307 305 305 308 309 314 315 319 321 322 322 322 324 325 326 326 328 328
318 318 317 316 315 316 316 319 323 320 318 315 316 319 318 315 311 306 311 312 311 311 308 309 307 304 304 303 308 310 311 313 317 318 320 321 321 322 324 325 325 326 327
320 319 318 315 314 315 315 313 312 312 315 314 313 312 313 312 312 309 305 307 309 310 308 306 304 303 303 302 303 307 310 313 318 318 318 319 319 320 322 323 323 325 325
314 315 315 312 311 313 313 314 315 314 314 314 314 314 312 310 307 307 305 306 306 306 305 305 304 303 301 301 305 307 309 310 314 320 317 318 316 317 319 321 320 321 322
310 312 311 310 310 311 313 313 313 312 312 311 311 311 312 312 312 310 308 307 309 306 303 302 301 300 300 299 300 302 306 308 311 315 317 317 315 316 320 319 317 318 320
308 309 310 310 310 311 311 310 311 311 311 311 310 312 313 314 312 312 312 311 306 307 303 299 298 298 296 297 300 301 299 305 307 309 309 310 310 311 314 319 320 321 321
307 307 307 308 308 308 308 307 308 308 308 307 308 309 312 313 313 314 313 312 310 304 303 297 296 296 294 295 298 296 296 302 304 306 306 306 306 307 309 311 313 314 316
306 304 304 305 306 305 305 305 306 309 310 309 309 309 309 308 308 308 308 308 306 306 300 296 294 295 294 295 296 293 295 298 300 301 303 303 303 304 305 306 308 310 311
303 302 303 302 302 302 302 301 303 308 307 308 307 307 306 306 305 303 302 302 301 301 300 295 295 294 294 292 291 292 292 291 292 298 299 300 301 301 302 303 304 305 306
300 300 299 299 299 299 299 298 299 303 305 304 304 304 302 302 300 300 299 298 298 297 297 293 293 291 292 290 287 288 291 293 290 296 297 296 297 298 300 301 301 302 302
297 297 297 297 297 297 296 296 298 300 301 301 301 301 299 299 297 297 297 296 294 294 292 293 290 291 290 291 286 285 287 286 290 291 293 294 294 295 295 298 298 298 298
295 294 294 296 295 294 294 294 295 295 295 295 295 296 297 297 296 294 293 293 293 289 290 288 288 288 290 290 287 283 282 283 283 285 287 289 291 292 293 293 294 293 294
293 292 293 294 293 293 294 293 295 295 294 294 294 294 295 296 296 295 292 290 291 291 290 289 289 290 289 288 282 281 280 279 280 280 280 280 280 280 282 288 290 291 290
291 291 291 292 291 294 296 297 296 295 294 293 292 293 294 296 296 296 295 294 293 290 289 288 288 287 282 280 280 280 279 276 276 280 279 278 279 279 280 280 289 289 290
288 289 289 290 290 291 296 297 297 294 292 291 290 290 290 291 290 289 292 291 290 292 290 286 284 282 279 281 280 279 278 277 278 279 279 276 278 279 280 283 289 289 291
287 287 289 290 289 293 295 296 295 290 289 289 289 288 287 285 285 285 283 283 283 283 284 284 282 281 282 281 282 281 280 279 279 279 278 274 277 278 279 280 289 289 290
290 289 292 291 289 290 294 293 289 286 286 285 286 286 284 283 287 288 282 281 280 282 288 288 286 287 288 288 284 280 278 276 276 277 278 277 277 277 279 279 281 290 289
290 289 287 288 290 287 293 292 285 280 280 280 281 283 289 285 290 289 282 280 278 279 281 281 280 282 281 282 285 280 279 274 275 273 278 275 277 276 274 279 280 280 280

GFSMA_sfc_thetae_069.txt.gz
Theta_e
327 327 326 325 324 324 324 324 324 324 324 324 323 322 321 320 320 320 319 323 330 335 334 334 335 338 338 337 336 335 332 331 328 325 324 322 322 322 322 323 323 323 324
327 326 325 325 323 323 325 325 325 325 324 323 323 324 323 324 324 324 325 324 326 330 335 334 334 335 335 335 336 335 335 334 332 330 327 325 323 321 320 321 321 322 321
324 324 321 320 324 323 322 323 321 322 323 324 324 325 325 325 327 328 328 327 327 326 330 333 336 334 333 333 334 334 334 334 334 334 331 329 326 324 322 321 321 321 321
323 322 321 321 320 319 319 320 322 323 324 324 324 326 328 330 329 329 328 327 326 327 327 330 334 334 331 331 331 331 331 332 333 332 333 331 329 327 325 324 322 322 321
326 325 325 325 326 323 321 322 323 327 325 327 327 328 325 328 328 328 325 324 324 323 323 327 327 326 328 327 328 330 331 330 329 330 331 331 331 329 328 326 324 323 323
329 327 327 327 328 327 328 328 328 330 329 329 329 327 325 325 326 323 321 324 322 320 318 316 318 323 328 329 328 327 327 326 326 326 326 328 329 330 331 329 327 325 323
331 329 328 329 329 329 330 331 330 329 329 328 325 322 320 322 321 317 315 318 315 313 312 313 318 316 318 322 322 322 323 324 325 324 324 325 325 326 328 329 330 328 326
332 331 330 329 331 331 331 330 329 329 328 328 322 316 313 314 313 314 311 311 309 311 312 312 313 311 308 309 313 317 318 320 322 322 322 323 322 323 325 326 327 329 328
334 333 333 333 333 332 331 330 330 328 324 320 320 319 313 306 308 313 311 310 309 309 311 310 308 306 305 306 308 310 314 316 318 320 321 321 321 321 322 325 327 326 328
323 323 322 323 322 320 319 320 325 324 321 316 314 317 316 315 312 306 309 310 309 309 308 308 305 304 303 305 308 311 313 315 319 319 319 319 320 320 322 324 325 325 325
321 322 321 320 317 316 316 315 311 311 314 313 312 311 311 311 312 313 306 309 307 307 306 306 305 303 303 303 303 307 311 313 318 320 319 319 319 319 319 320 322 323 324
318 317 315 314 313 313 313 313 313 312 312 311 311 311 314 310 306 306 305 305 304 302 302 304 303 301 302 303 305 307 309 311 314 317 320 319 318 317 320 321 321 320 320
313 312 313 311 311 311 312 312 312 311 311 309 309 309 309 309 310 310 309 308 304 300 301 301 301 301 301 300 301 302 307 308 310 312 314 314 313 315 319 320 318 316 318
311 312 311 311 311 311 311 310 309 309 311 310 309 309 309 310 309 310 310 309 306 306 301 299 298 299 299 299 301 301 298 306 307 308 309 309 309 310 313 317 317 319 320
312 309 309 308 308 309 307 307 307 307 307 306 306 306 307 308 311 313 313 313 310 303 301 297 296 297 297 298 298 295 295 302 303 305 305 305 304 306 308 311 313 314 315
306 305 305 305 305 305 305 305 305 307 307 307 306 305 306 308 309 308 308 308 308 307 303 298 295 295 296 296 297 293 294 297 301 301 301 302 302 303 305 307 308 310 311
303 303 302 302 301 302 300 299 300 302 304 304 305 307 307 306 305 304 303 303 302 302 300 295 295 295 294 293 293 292 291 291 292 298 299 299 299 301 302 303 304 305 307
301 300 299 299 298 298 297 297 297 298 300 302 305 304 303 302 301 301 300 299 298 298 298 294 293 292 292 292 290 289 290 292 290 295 296 296 296 298 300 300 300 302 302
300 299 298 297 297 297 296 295 295 297 298 299 301 302 301 300 298 298 297 296 295 295 294 294 290 292 292 291 288 286 287 284 288 290 293 294 294 295 295 297 297 298 298
296 295 295 295 295 294 294 293 293 293 293 294 296 297 298 298 297 295 294 294 294 293 292 292 291 290 290 290 288 284 283 282 283 285 287 288 289 290 293 294 293 293 293
293 292 292 292 292 293 293 292 293 292 292 294 294 295 295 296 297 296 294 293 292 291 290 288 289 290 289 288 285 282 281 281 280 281 280 280 280 280 283 286 288 291 291
290 290 290 291 290 293 296 297 296 292 294 293 292 293 295 296 297 297 296 295 294 291 289 289 288 288 285 282 280 281 280 279 278 280 279 278 280 280 281 282 290 290 291
288 288 289 289 289 290 296 297 298 294 293 292 290 291 291 292 291 291 293 292 292 293 292 288 287 285 281 281 281 279 279 278 278 279 279 276 279 279 280 282 288 290 291
287 287 288 289 288 290 296 297 296 291 290 290 289 289 288 287 287 286 283 282 282 283 283 284 282 281 281 282 281 281 279 279 279 279 279 275 278 279 280 280 290 290 290
287 286 290 292 290 287 295 295 291 287 287 287 288 287 286 285 287 289 282 282 282 282 288 288 288 288 289 288 284 281 278 276 277 278 279 278 278 278 279 279 281 289 289
288 289 288 290 291 287 294 294 289 285 285 284 284 284 290 283 289 289 282 280 279 280 281 280 281 282 281 282 287 280 279 274 276 275 279 277 278 277 274 279 279 279 280

GFSMA_sfc_thetae_072.txt.gz
Theta_e
326 326 325 324 323 322 322 321 322 322 322 323 323 321 321 321 320 320 319 324 327 330 333 334 335 337 338 337 336 336 334 333 331 328 327 324 322 321 322 322 322 323 324
326 326 325 324 322 321 323 323 323 324 324 322 323 323 323 323 324 324 324 325 328 330 332 334 334 336 335 335 334 334 334 333 334 333 330 328 325 322 321 321 322 322 321
327 327 325 323 323 322 322 322 322 321 321 323 323 324 325 325 325 328 327 327 328 327 330 334 335 336 333 333 333 332 332 332 333 333 334 331 329 326 323 323 321 322 321
325 324 322 320 319 322 320 319 320 320 322 322 323 325 325 327 327 327 327 325 325 326 328 329 332 334 331 329 329 330 331 332 331 332 332 332 332 329 327 325 323 322 321
324 323 321 321 320 319 318 319 319 322 323 323 324 327 327 324 325 325 323 322 324 324 322 326 328 328 329 328 330 331 330 328 327 328 328 330 330 331 330 328 326 324 323
325 324 324 324 326 323 322 321 321 326 328 328 328 326 324 324 323 321 320 322 322 320 319 317 320 324 329 330 328 327 326 326 326 325 325 326 327 327 330 331 329 327 325
331 327 327 326 327 326 327 330 329 328 328 328 326 319 319 320 318 314 314 315 316 314 313 315 318 318 320 323 323 323 323 324 324 324 323 323 324 325 326 327 329 329 328
332 331 330 328 328 328 330 330 329 326 327 328 322 314 311 313 312 312 310 310 309 310 310 311 310 310 310 310 314 317 318 319 320 321 321 321 322 322 322 325 326 327 329
332 331 331 331 331 332 329 330 330 328 325 321 319 321 313 305 307 311 310 309 308 307 308 308 307 307 306 305 308 310 315 317 320 320 320 320 320 320 321 322 325 326 327
328 329 328 327 325 323 323 323 325 324 323 321 317 316 315 313 307 304 308 308 308 307 306 306 304 304 306 305 308 312 313 315 319 320 319 319 319 320 321 322 324 325 325
323 323 323 323 322 319 317 315 312 312 316 311 310 309 309 310 315 311 305 305 306 306 307 304 303 302 304 303 303 309 311 314 317 321 321 320 320 320 320 321 322 322 324
319 321 320 319 317 315 315 315 314 314 311 310 309 309 313 310 305 306 307 306 304 304 304 303 302 300 301 303 306 308 310 311 314 315 317 316 316 318 323 320 318 320 321
315 316 316 314 312 312 313 313 313 312 311 309 309 309 308 310 310 309 307 307 307 302 302 302 300 299 301 300 302 303 307 308 310 311 313 313 312 314 317 320 322 322 319
316 315 314 313 311 312 311 311 310 309 309 309 310 310 311 309 308 307 308 305 304 304 301 300 298 299 298 297 301 301 300 306 307 307 308 308 307 309 312 316 317 318 320
315 313 312 309 309 309 308 308 307 307 307 307 306 306 307 307 308 309 310 312 309 304 301 298 295 297 298 298 299 297 297 302 303 303 304 304 304 305 308 310 312 313 315
309 308 306 307 307 306 305 305 304 305 305 305 306 305 305 306 306 306 307 309 309 308 304 298 296 296 297 297 298 295 296 297 301 300 301 301 301 303 305 307 308 310 311
304 304 303 303 303 302 301 300 300 301 301 302 303 303 304 304 304 304 304 304 303 302 301 295 295 295 294 294 294 293 294 291 292 298 299 298 299 301 302 303 304 305 308
302 302 301 300 300 299 298 297 297 297 297 298 300 301 302 303 303 302 301 300 299 298 299 294 293 292 293 293 291 291 292 291 290 295 296 296 297 298 300 300 300 302 303
299 299 299 298 298 297 296 295 295 295 295 296 297 298 302 301 300 299 298 297 296 295 295 294 290 292 292 291 289 289 288 286 287 291 293 294 295 295 296 297 297 298 298
296 295 296 296 295 294 293 293 292 292 292 292 294 294 298 299 298 297 296 295 294 293 293 293 291 290 291 290 289 286 284 283 282 285 287 288 289 290 294 294 293 292 293
293 293 292 292 292 292 293 291 291 291 291 291 292 294 296 297 298 297 295 294 294 293 291 290 289 290 289 288 287 284 283 281 281 281 280 281 281 281 283 286 289 291 292
291 290 290 291 290 293 296 297 295 291 291 291 292 293 295 297 297 298 297 296 295 292 290 290 289 289 287 286 283 281 280 279 278 280 280 279 281 280 281 282 290 291 291
288 289 289 289 289 289 296 297 298 294 291 292 291 292 292 293 293 293 294 293 294 294 293 290 288 287 285 284 280 279 279 278 279 280 279 277 279 279 281 282 289 291 292
288 287 288 288 288 290 296 297 298 292 289 291 290 290 290 288 288 288 285 284 282 282 283 283 284 283 282 282 282 282 280 279 280 280 279 275 278 279 280 281 290 291 291
286 285 288 287 287 289 295 296 291 288 288 288 289 289 288 286 289 290 283 281 281 282 288 289 288 288 289 288 285 281 279 277 277 278 279 278 278 279 279 280 282 289 290
287 288 287 287 291 289 294 296 292 287 286 286 286 286 291 286 289 291 281 279 279 279 280 280 280 281 281 285 288 281 280 276 277 276 279 278 278 278 277 279 280 280 281

GFSMA_sfc_thetae_075.txt.gz
Theta_e
332 333 332 332 331 331 329 329 330 331 331 332 332 331 331 331 331 331 332 325 328 331 334 335 335 336 337 336 335 335 335 335 334 331 328 325 323 322 322 323 322 324 324
333 333 334 333 332 330 330 330 332 333 333 332 331 332 332 333 333 333 334 334 329 331 333 336 336 335 335 334 334 333 333 333 334 335 333 330 327 324 323 322 322 322 322
334 334 334 333 332 330 329 331 331 331 331 330 332 333 334 334 334 333 335 335 335 328 330 334 336 336 335 332 332 331 332 333 333 333 333 333 331 328 325 324 323 323 321
334 333 333 333 332 331 329 329 329 329 328 330 332 333 333 333 334 334 334 334 334 333 332 328 332 335 334 331 329 330 332 329 329 330 331 332 331 332 329 326 325 324 323
332 332 331 332 329 327 329 328 327 328 329 330 330 332 331 332 333 332 332 332 331 332 332 329 328 331 331 330 332 331 328 327 327 327 327 328 330 330 331 330 327 325 324
331 329 329 330 328 326 325 325 325 327 329 330 329 329 332 332 332 330 329 327 329 329 329 329 328 328 330 331 329 327 326 326 325 324 324 325 326 326 327 329 331 328 326
331 327 327 328 329 329 328 328 328 327 329 331 330 329 329 328 325 323 323 324 325 324 324 326 328 327 325 324 324 324 323 323 323 323 322 321 322 323 324 326 327 330 329
333 330 328 328 329 331 332 331 333 331 333 333 326 324 319 322 322 321 320 320 319 320 320 321 320 318 318 317 318 318 318 319 320 321 321 321 321 321 322 323 324 326 328
334 333 331 331 330 332 334 333 333 331 329 326 326 325 318 314 317 320 318 317 317 317 317 316 315 314 314 314 314 315 316 317 320 321 320 320 320 320 322 323 324 325 326
327 330 332 331 332 332 330 329 329 327 327 326 325 323 324 322 316 311 317 317 316 314 315 314 312 311 310 310 312 313 314 316 319 320 321 321 321 321 321 321 322 324 325
325 325 326 326 326 326 323 322 317 317 322 320 321 318 319 318 317 314 309 314 314 314 313 312 308 310 309 308 310 311 312 315 317 318 320 319 319 319 323 325 323 323 323
323 323 323 323 323 321 319 318 317 315 314 316 317 317 316 314 313 311 309 311 311 313 311 309 306 305 306 308 308 309 310 312 313 315 317 316 315 317 322 323 319 320 320
319 318 319 318 317 316 315 315 314 315 315 315 316 316 317 316 315 313 313 312 311 312 309 308 306 303 305 305 306 304 308 309 310 311 312 313 312 313 317 320 321 321 323
320 319 317 316 315 313 313 313 313 313 314 314 313 313 314 314 314 313 312 309 308 310 308 308 304 303 303 303 303 302 304 306 307 308 308 307 306 309 312 315 316 317 319
318 318 318 316 313 312 311 312 312 311 312 312 312 312 311 312 314 314 312 313 311 304 306 306 302 301 302 303 300 300 299 303 304 304 304 303 304 305 308 310 312 313 315
316 313 312 310 310 310 310 309 308 308 309 310 310 310 309 310 312 313 312 311 311 310 305 302 301 299 300 299 300 297 298 299 301 301 301 301 302 303 305 307 308 310 311
309 309 308 307 306 305 305 304 305 305 305 306 307 308 308 309 309 309 309 308 307 305 304 297 296 297 297 297 295 295 296 295 297 299 300 299 300 301 302 303 305 306 307
307 307 305 305 304 302 302 302 301 301 301 302 303 304 305 306 306 307 306 304 303 302 301 296 294 293 294 294 294 293 293 293 293 297 297 297 297 299 299 300 301 302 303
302 303 303 301 300 301 300 300 300 299 300 300 300 301 303 304 304 304 303 301 300 298 298 297 292 293 293 292 290 290 290 290 289 293 294 295 295 296 297 297 297 298 299
300 300 300 299 299 299 298 297 297 297 297 297 297 298 299 301 303 302 299 298 297 296 296 295 293 292 292 291 290 289 287 287 288 288 288 289 290 292 295 294 292 293 294
299 298 297 297 297 297 297 297 297 297 296 296 296 297 298 298 299 300 298 297 296 295 294 293 291 291 290 289 288 288 288 287 286 287 286 286 286 287 289 289 291 292 292
296 296 296 295 295 295 298 298 296 295 295 295 295 296 297 297 298 299 298 297 296 294 292 292 291 290 290 289 287 286 286 286 285 286 285 284 286 285 287 289 291 291 291
294 294 294 295 295 295 298 298 298 296 295 295 295 294 294 295 295 295 295 295 295 294 294 292 290 290 288 288 287 285 286 285 284 284 285 283 285 284 286 286 290 292 292
293 293 293 293 294 293 297 298 298 297 295 294 293 293 292 291 290 289 287 286 285 286 287 288 290 289 288 288 289 288 286 284 284 283 284 282 283 284 285 288 291 292 292
292 290 292 292 292 292 296 297 295 292 291 292 292 292 290 289 291 292 287 285 285 286 289 289 288 289 289 288 287 285 284 283 281 281 283 283 282 283 285 287 288 290 290
290 291 289 290 292 291 296 297 294 291 290 290 289 288 292 288 291 293 286 285 284 284 285 285 286 286 288 289 288 285 285 282 282 281 282 283 281 282 282 284 285 285 287

GFSMA_sfc_thetae_081.txt.gz
Theta_e
334 333 332 332 332 331 330 329 328 326 326 328 330 331 333 333 333 334 335 329 332 334 336 337 338 338 338 338 338 337 336 335 334 335 334 330 327 325 324 323 322 323 323
332 332 330 330 329 330 329 327 327 328 328 332 333 334 334 334 334 334 335 334 332 334 335 337 340 340 338 337 335 336 334 332 333 333 334 334 331 329 326 324 323 323 322
333 331 331 331 332 332 329 328 328 331 332 332 332 334 334 334 334 333 333 335 334 330 334 336 337 338 338 336 336 334 333 331 330 331 332 332 333 333 330 328 326 324 322
336 335 335 336 335 334 332 328 329 330 331 331 332 333 333 334 333 332 333 334 336 333 332 336 335 333 335 336 334 334 332 328 328 328 328 329 330 331 332 331 328 326 325
339 337 333 335 336 335 332 330 331 331 330 330 331 333 332 332 331 331 331 332 333 334 334 332 330 330 335 336 333 334 330 327 326 325 325 326 326 327 328 330 331 329 327
340 337 335 336 337 335 333 332 330 331 330 330 328 328 331 331 333 331 330 329 328 329 331 332 332 328 330 334 333 330 327 325 324 324 324 323 323 324 325 326 328 329 330
337 337 338 335 335 334 333 332 331 329 329 333 328 329 329 330 330 330 329 326 326 327 328 330 332 330 327 329 328 327 324 322 321 321 321 322 323 323 322 324 325 326 329
337 336 337 337 334 332 330 333 330 329 329 332 328 327 322 324 327 326 326 324 324 327 327 328 330 329 327 325 322 321 320 320 321 321 321 321 321 321 322 323 323 325 326
335 336 336 336 334 332 329 329 330 331 329 332 332 327 319 317 321 324 324 323 322 323 325 326 326 325 324 322 318 316 316 318 320 320 320 320 321 322 322 323 323 324 325
332 333 335 335 334 332 329 328 330 330 330 326 329 329 329 327 317 314 321 321 321 320 322 323 322 321 320 320 313 313 315 316 320 321 322 321 320 320 321 322 326 325 325
328 329 329 331 331 331 330 329 325 322 323 324 323 323 320 319 319 318 310 314 319 319 320 321 320 319 318 318 316 313 313 315 316 317 318 318 318 318 319 324 325 323 321
326 326 327 327 329 327 326 323 320 319 318 317 317 316 315 312 311 311 309 310 312 317 319 319 319 318 317 315 312 311 311 312 313 314 316 316 315 315 317 322 322 322 323
326 327 327 326 326 325 323 322 319 317 316 315 315 314 315 315 316 316 314 312 311 314 315 317 317 317 314 313 311 309 310 310 311 312 314 314 311 311 313 317 319 319 320
328 328 327 327 326 325 322 320 318 317 317 316 315 315 315 316 317 317 314 312 309 309 311 313 315 314 312 311 309 306 307 308 310 311 310 308 307 308 310 313 314 315 316
326 326 325 324 323 321 319 318 317 316 315 315 315 315 314 316 317 316 315 314 310 305 306 310 309 310 310 307 307 305 305 306 306 306 305 304 304 305 307 308 310 311 312
322 323 322 321 320 318 317 316 316 316 315 315 315 315 315 314 314 314 314 313 313 310 305 310 309 305 306 305 302 302 301 302 303 302 302 301 301 303 304 305 307 308 309
319 319 318 317 316 315 316 316 315 314 313 313 312 312 312 312 311 312 313 312 310 310 305 303 302 302 303 300 298 297 298 298 299 300 301 300 301 301 302 302 303 304 306
315 314 313 313 314 315 314 312 310 310 309 309 309 309 310 309 309 310 310 308 308 308 305 302 299 296 297 298 296 295 295 295 296 298 299 298 298 300 300 300 301 301 303
311 314 310 309 309 310 310 310 309 307 307 307 307 306 307 308 307 307 308 307 307 305 305 301 296 295 294 293 291 292 292 290 292 297 297 297 296 296 297 297 296 297 298
308 310 311 308 307 307 307 306 306 305 304 304 305 305 305 305 306 306 305 305 305 302 302 300 296 294 293 292 292 290 288 290 288 291 291 292 292 293 295 294 293 293 294
306 307 308 307 306 304 304 305 304 303 302 302 303 303 303 303 300 302 303 303 302 301 298 296 294 293 292 290 289 290 288 287 288 289 288 289 288 288 291 291 291 292 292
305 305 305 305 304 303 303 302 304 303 303 302 301 301 302 298 299 300 301 300 302 298 296 295 294 293 292 291 289 288 286 285 285 289 288 289 286 286 286 288 292 292 291
304 304 304 303 303 303 301 301 301 302 301 301 300 300 300 300 300 300 299 299 298 298 297 297 294 294 292 291 289 286 287 287 288 287 287 285 285 284 286 287 291 292 292
302 302 302 303 302 302 301 301 300 300 300 300 299 299 299 298 297 298 296 293 291 290 291 293 294 293 292 291 290 290 288 288 286 285 285 282 283 283 284 287 291 293 292
300 300 301 301 301 301 300 300 300 298 296 297 298 298 298 297 297 297 291 288 288 288 290 289 290 293 293 294 292 290 288 286 283 282 283 283 281 282 284 286 289 292 291
297 298 297 298 300 299 299 299 299 297 295 295 297 296 298 296 296 297 291 290 287 288 287 287 288 289 291 290 293 290 288 285 284 281 283 282 281 282 281 285 286 287 289

GFSMA_sfc_thetae_087.txt.gz
Theta_e
332 333 331 331 328 327 325 324 323 321 318 318 317 317 317 321 323 323 321 328 333 338 338 338 339 339 340 340 339 338 337 335 332 332 333 334 331 328 326 324 323 323 323
331 330 330 329 327 326 324 324 321 320 318 317 318 320 321 324 324 326 326 327 332 335 340 339 339 340 339 340 339 338 336 334 332 331 331 332 333 333 331 328 325 323 322
327 327 326 326 326 325 321 321 320 318 317 319 320 323 325 325 326 327 327 325 328 330 336 340 340 338 337 338 338 338 335 333 330 329 329 329 330 330 330 332 330 327 325
327 324 322 322 322 321 320 319 318 319 321 322 323 324 325 327 327 328 328 328 329 329 331 336 339 337 334 336 339 338 335 331 329 327 326 326 326 327 327 329 331 330 328
325 323 324 323 324 324 322 322 320 321 322 323 323 324 324 325 327 326 322 323 326 326 325 330 331 330 331 335 339 338 333 329 327 325 324 323 323 323 325 326 327 329 330
329 327 327 328 328 326 324 324 321 323 324 324 324 323 324 325 325 326 323 322 323 321 324 325 323 325 331 337 338 336 332 328 326 324 322 322 322 323 323 323 324 325 327
334 331 329 329 330 328 326 326 325 323 322 322 322 322 323 324 324 324 323 318 319 320 321 322 322 323 327 333 336 334 330 327 324 322 322 321 322 322 322 322 323 323 325
334 332 330 329 329 328 327 328 327 324 323 323 320 320 316 318 321 321 318 316 318 319 320 322 322 321 320 320 322 329 327 324 323 322 321 321 321 321 322 322 323 323 324
331 330 330 330 329 328 326 326 327 326 324 325 324 321 315 312 314 315 314 315 316 316 318 319 321 321 318 316 318 319 321 321 321 322 322 322 321 321 321 321 324 326 326
328 329 329 329 330 328 326 326 327 326 325 322 323 326 324 322 314 311 315 315 314 313 315 316 316 316 315 313 313 313 316 318 322 323 324 322 320 319 320 321 323 324 325
326 326 327 327 327 327 326 326 324 325 326 323 322 321 321 318 316 313 308 311 314 315 313 317 317 315 314 311 309 312 315 316 319 322 322 320 318 318 318 320 321 322 323
324 325 325 325 324 325 327 327 325 323 322 321 321 320 317 315 312 311 308 309 310 312 314 315 314 312 310 308 310 312 314 315 316 318 319 319 317 315 316 317 318 319 319
320 321 323 323 323 324 325 325 324 323 320 318 317 317 315 315 314 314 313 310 308 311 311 312 310 310 310 307 307 309 311 312 313 315 317 319 313 311 312 314 315 315 315
321 321 322 322 322 322 322 323 322 321 320 319 318 316 315 314 316 315 313 311 306 307 307 308 307 307 306 305 306 308 306 310 311 314 316 311 308 307 309 310 311 312 312
323 323 323 323 323 323 324 322 321 319 318 318 318 317 316 315 315 315 314 311 308 302 304 305 304 303 303 303 305 302 301 309 310 310 308 306 304 306 307 307 308 309 309
317 319 319 321 322 322 322 321 320 320 318 318 317 316 315 315 315 314 313 311 310 305 301 304 300 301 301 302 304 302 302 305 307 306 305 303 303 304 304 304 305 305 306
308 311 312 314 317 318 318 318 317 316 316 315 315 315 314 313 311 311 310 309 307 306 303 299 299 299 301 300 298 297 300 300 301 303 304 302 302 303 302 302 302 302 303
304 306 309 309 311 315 316 315 314 314 314 313 313 313 311 310 308 307 307 306 305 305 303 300 297 295 297 298 297 296 296 297 297 300 303 301 300 302 301 300 299 299 300
302 303 306 307 307 311 313 314 314 313 313 313 311 311 309 308 305 304 304 304 303 303 301 299 296 296 295 294 292 293 293 292 293 297 302 300 299 299 299 298 295 295 296
299 300 301 304 305 307 309 309 309 308 308 308 308 308 306 306 304 303 304 303 301 299 299 298 296 294 294 293 292 291 289 290 290 295 296 295 296 296 297 295 293 293 294
298 299 299 300 302 304 305 306 306 305 304 304 304 305 305 304 303 304 302 300 299 297 296 295 295 294 292 290 290 290 289 289 289 289 289 290 290 289 292 293 291 293 292
296 297 297 298 298 300 303 305 304 302 303 302 301 302 302 300 302 304 303 303 301 297 295 293 294 293 292 291 291 289 288 286 286 290 287 287 288 286 286 285 292 292 292
295 295 295 296 296 297 302 304 304 299 299 300 299 299 299 299 300 298 302 302 302 303 300 296 293 294 292 293 290 287 287 287 287 288 287 285 284 284 282 287 292 292 292
294 295 295 297 297 297 301 302 303 297 296 296 296 296 296 296 297 296 296 293 292 293 295 296 295 295 294 293 292 289 288 287 285 286 287 284 282 280 281 281 291 292 293
292 293 294 295 295 296 300 300 300 293 292 292 294 295 295 294 298 299 292 289 290 289 293 295 295 296 297 296 292 288 287 285 283 283 283 283 279 279 279 281 283 293 293
290 291 290 292 294 295 298 299 299 294 292 293 292 294 298 295 298 300 293 291 289 286 285 285 286 290 294 294 296 291 288 286 283 282 283 278 278 279 275 280 282 283 284

GFSMA_sfc_thetae_090.txt.gz
Theta_e
331 332 333 332 333 330 326 324 322 320 317 315 315 315 314 314 319 320 318 329 334 340 342 341 340 339 339 340 339 338 337 335 333 332 332 333 332 330 328 326 324 323 322
332 332 332 331 331 330 327 324 321 319 317 316 316 315 316 317 320 322 320 322 331 335 340 340 340 339 340 339 340 339 338 336 332 331 330 330 331 332 332 330 327 325 324
333 332 331 330 330 328 325 322 320 320 317 317 315 316 320 321 323 324 324 324 325 330 335 340 341 339 338 337 338 337 337 334 331 328 327 327 328 329 329 331 331 329 327
333 332 330 328 327 325 322 321 319 316 316 316 316 319 322 324 325 325 326 327 327 329 331 336 340 340 337 335 337 339 336 332 329 327 325 324 324 325 326 327 328 330 330
329 330 327 327 324 323 321 319 317 317 318 320 321 323 323 324 325 326 325 325 326 327 325 329 332 333 333 334 337 339 336 331 328 326 324 323 323 322 323 323 325 326 328
329 326 325 323 323 322 320 320 318 320 321 321 323 323 322 324 324 323 324 323 324 324 324 325 325 323 328 333 337 338 335 331 327 325 322 322 322 322 323 322 323 324 325
328 326 326 324 324 323 323 322 321 320 321 322 320 321 321 323 322 322 323 320 321 320 323 322 321 322 325 334 337 337 333 331 326 323 322 322 321 321 322 323 323 323 323
329 328 328 328 328 327 325 324 323 321 321 321 319 318 315 318 321 322 318 317 318 319 320 321 321 321 321 322 326 333 332 330 326 324 322 321 321 321 322 322 322 325 327
329 330 329 329 327 328 326 325 325 324 321 322 322 320 313 313 314 316 314 314 315 316 318 320 320 320 318 317 319 321 324 326 324 324 323 322 321 321 322 322 323 325 326
327 327 327 326 326 325 324 325 326 324 323 321 322 324 322 319 312 311 316 315 316 316 318 318 318 318 316 315 315 315 319 319 321 324 325 325 321 320 321 321 322 323 323
326 326 325 326 326 326 325 324 324 323 324 322 321 321 320 321 318 314 310 311 315 316 316 317 316 314 315 313 312 313 316 317 320 323 324 324 320 319 319 320 321 321 321
323 324 324 324 325 325 325 325 324 323 323 322 320 320 317 316 314 311 308 310 312 314 316 316 316 315 313 311 311 313 315 316 318 319 322 322 320 316 316 317 318 318 318
321 322 323 323 323 323 323 324 325 323 322 322 322 321 318 316 314 316 310 309 308 311 312 315 315 314 311 308 309 309 313 314 315 317 319 321 316 312 312 314 315 316 316
321 321 322 323 323 323 323 323 323 324 322 321 318 318 318 318 316 316 315 312 307 309 308 308 308 310 308 307 307 309 307 312 311 313 316 315 310 308 308 310 312 312 312
321 322 322 321 321 320 320 320 321 320 320 320 320 318 317 316 316 316 315 315 310 304 305 305 304 304 305 305 306 303 303 309 311 312 309 306 305 305 307 307 308 309 309
311 314 317 319 321 322 322 322 321 321 320 319 319 318 318 317 316 315 314 312 311 306 302 305 302 301 302 303 304 303 303 307 309 309 307 304 303 304 305 304 304 305 305
304 305 310 310 313 315 319 319 319 319 319 319 318 316 316 315 315 314 313 312 310 307 303 300 299 299 299 299 299 300 301 300 300 306 306 305 302 303 303 302 302 303 303
301 302 304 307 307 309 314 316 316 316 315 315 314 314 314 312 312 311 310 308 307 306 304 299 297 296 297 298 296 295 296 298 298 301 304 304 302 302 302 301 300 299 299
299 300 300 301 304 306 308 313 314 314 314 314 314 313 313 311 310 309 308 305 304 302 301 299 296 296 295 295 293 294 294 292 294 297 301 304 301 300 301 300 297 295 295
297 298 299 299 300 303 305 306 309 310 309 309 310 311 311 310 310 307 305 303 302 300 299 297 294 294 292 293 293 292 291 291 291 295 299 298 299 298 298 298 295 293 293
295 296 297 297 298 299 302 302 304 305 305 305 305 306 306 306 304 305 304 302 301 301 298 296 294 294 292 291 291 291 290 290 290 291 291 291 292 291 291 296 293 292 293
294 294 295 295 295 298 301 303 303 300 301 303 302 303 304 302 303 306 305 304 303 300 298 297 294 294 293 291 290 289 289 287 287 289 288 287 289 288 287 288 291 293 293
291 292 293 295 295 296 300 302 302 299 297 297 299 300 300 300 301 301 304 304 303 304 303 298 296 292 290 291 289 287 288 287 288 287 287 286 286 285 286 286 292 292 292
289 290 290 292 293 295 298 300 300 298 296 295 294 295 296 297 297 298 298 296 296 298 297 298 296 293 293 292 292 292 290 288 286 287 288 285 283 283 283 282 289 291 293
287 287 290 290 289 291 296 297 298 296 294 294 294 294 294 294 298 300 294 292 292 292 295 298 297 298 299 298 294 290 287 286 283 284 285 284 281 281 280 280 282 292 293
286 288 287 287 289 287 293 296 297 295 294 294 295 295 297 295 298 301 292 291 290 289 288 288 288 292 296 296 296 292 288 287 284 282 284 283 280 279 275 279 282 282 284

GFSMA_sfc_thetae_096.txt.gz
Theta_e
334 334 333 334 335 334 333 330 331 328 322 318 313 312 311 310 309 312 316 325 334 341 343 342 341 341 340 340 340 339 338 335 334 331 330 331 333 331 331 330 328 327 325
334 334 334 333 334 334 333 331 326 325 322 317 313 312 312 312 310 313 316 319 328 335 340 343 342 341 340 340 340 339 339 337 335 332 329 329 329 329 330 331 331 331 329
334 334 334 333 333 334 332 329 326 322 318 317 314 313 313 312 313 314 318 318 320 327 333 339 343 342 340 339 339 337 340 338 334 331 328 327 326 326 326 327 328 329 331
331 331 332 333 334 332 330 327 325 323 320 315 315 313 313 314 314 315 318 321 320 322 326 334 339 342 342 340 338 337 339 337 333 330 327 325 323 323 323 324 325 326 328
331 330 331 332 332 327 328 327 324 323 320 318 315 314 314 315 316 320 320 321 322 322 322 327 331 334 338 340 338 337 339 336 332 329 326 324 323 323 323 323 323 324 324
328 330 331 332 328 325 324 326 325 321 319 318 318 317 316 317 318 320 322 323 323 323 323 323 326 328 332 337 337 336 339 336 332 328 326 324 323 322 322 322 323 323 324
330 329 330 330 324 323 322 324 324 321 318 318 316 316 318 319 320 321 321 321 321 322 323 323 325 326 327 332 334 335 338 337 332 328 325 324 323 322 322 322 322 325 326
331 331 330 329 326 323 322 322 323 320 318 319 315 315 313 316 319 321 319 319 319 321 322 323 323 322 321 322 326 334 338 337 333 329 326 325 324 323 322 322 322 324 325
328 328 329 328 326 326 324 323 322 319 316 319 320 317 311 310 314 316 317 318 316 318 320 321 321 319 320 321 325 329 331 334 333 331 328 326 325 323 322 321 321 323 322
327 326 326 325 325 325 323 323 322 321 319 316 317 320 320 317 312 310 314 314 315 316 317 318 319 319 319 319 322 323 326 329 333 331 330 328 326 324 322 320 321 321 321
327 327 326 325 324 324 324 323 322 321 322 319 318 318 317 317 316 312 310 312 312 315 316 317 320 319 318 319 318 318 322 327 330 329 329 329 329 326 323 320 319 319 319
324 323 323 322 322 323 323 323 322 321 322 320 320 318 318 316 316 314 311 310 310 312 313 316 318 318 318 316 315 316 319 324 327 327 327 328 328 326 321 318 317 317 317
321 321 322 322 321 321 321 322 322 322 321 321 321 320 319 319 318 317 315 314 310 312 312 312 315 315 316 315 314 313 316 320 322 323 326 326 324 322 318 316 314 315 315
313 319 321 321 321 321 321 321 321 322 322 321 321 321 321 321 320 319 318 316 313 311 311 311 309 313 313 313 312 311 313 316 319 321 322 321 320 315 313 313 312 311 311
309 311 314 316 320 321 321 321 321 321 322 322 321 321 321 321 321 320 320 319 315 310 309 308 307 308 309 310 311 309 309 313 315 316 318 314 311 311 310 310 309 309 308
303 304 306 310 311 313 316 318 320 321 321 321 321 320 320 320 319 319 318 317 317 314 308 307 305 304 306 307 309 307 306 309 313 315 312 310 308 308 308 308 307 306 306
300 300 301 302 304 307 308 311 314 316 318 318 319 318 318 319 318 317 317 316 315 314 310 301 301 301 302 303 303 304 305 306 309 312 310 308 307 306 307 306 305 305 303
298 298 298 299 300 301 303 305 306 310 312 313 315 315 315 315 316 317 316 314 314 313 307 300 298 298 299 301 300 300 300 301 302 308 309 308 306 305 306 305 303 302 300
294 295 296 296 296 298 299 300 301 302 305 309 311 313 314 314 313 314 314 313 312 308 309 302 297 297 297 298 296 296 296 295 297 301 306 306 306 305 305 304 303 300 297
291 292 293 293 294 295 297 298 299 298 299 301 304 307 309 310 311 312 311 311 309 307 306 302 297 296 295 295 296 294 293 294 293 294 299 301 305 304 303 304 301 297 294
289 290 290 291 291 292 295 296 297 297 297 297 299 301 304 304 303 306 308 308 306 305 303 299 296 295 293 292 294 293 294 291 292 291 290 293 296 297 298 301 299 296 294
286 287 287 288 289 291 295 295 295 294 296 296 295 297 298 301 302 305 305 306 307 305 302 301 297 297 295 294 293 292 290 289 289 291 289 289 293 291 292 292 296 296 294
284 284 284 286 286 287 294 294 294 292 293 294 295 296 296 297 299 300 302 304 305 306 306 304 300 299 296 294 293 289 289 289 289 287 288 287 289 289 290 290 295 296 295
282 282 282 284 284 286 292 293 293 289 290 292 293 294 295 295 295 297 297 297 299 300 303 302 303 301 300 296 296 294 292 289 286 286 288 287 285 287 286 287 293 294 294
280 280 282 282 282 283 290 291 291 287 288 288 291 293 293 295 297 299 297 294 295 296 299 302 302 301 301 299 296 292 288 289 286 286 286 287 283 283 283 284 285 293 293
280 281 280 280 283 282 287 289 289 286 284 286 288 290 295 294 297 299 297 295 293 293 293 292 294 298 300 299 298 296 292 290 286 284 285 285 282 282 282 283 284 284 286

GFSMA_sfc_thetae_099.txt.gz
Theta_e
335 338 341 341 339 337 337 340 338 338 338 336 329 323 323 322 323 324 326 325 333 340 343 343 342 341 340 340 340 340 338 336 334 332 330 331 333 331 331 331 330 328 327
335 336 335 337 341 339 340 337 336 335 331 330 323 322 319 320 320 321 321 323 327 333 339 343 343 343 342 342 341 341 340 338 336 333 330 329 329 328 330 330 330 330 331
334 337 338 336 337 339 339 336 331 330 328 326 323 321 320 320 320 319 320 323 325 326 333 337 341 342 343 342 341 340 341 340 337 333 330 328 326 326 326 325 325 327 329
332 334 336 336 339 337 337 332 330 327 329 323 323 321 321 320 321 321 321 323 325 325 327 333 337 341 342 342 341 339 339 340 337 333 330 327 325 324 323 323 323 324 325
330 331 333 334 336 336 334 334 331 330 324 322 321 321 320 321 320 321 322 323 325 326 327 327 329 332 337 342 341 339 339 340 336 332 329 327 325 324 323 323 323 323 323
330 331 332 333 334 333 331 331 330 328 328 324 323 321 322 321 321 321 322 324 326 327 328 329 329 329 330 338 342 339 338 339 336 332 329 327 326 325 324 323 323 322 326
329 330 331 332 333 331 329 329 330 326 325 322 320 319 321 321 321 323 324 325 326 328 329 329 330 331 330 334 338 339 338 338 337 332 329 327 326 325 325 324 322 325 326
330 329 331 330 329 328 328 328 326 325 322 321 318 318 313 318 322 323 324 325 325 327 327 327 328 329 331 333 334 334 337 339 338 334 330 327 326 326 325 324 323 324 324
331 330 332 331 329 328 326 325 325 323 318 320 320 318 314 313 318 323 323 325 324 324 325 327 327 328 330 331 330 329 330 336 338 336 332 328 327 326 325 324 323 324 322
330 330 331 331 328 327 325 323 323 322 320 316 319 320 324 322 317 315 320 321 324 322 323 324 326 327 328 329 326 325 326 329 337 336 333 330 328 327 326 325 323 323 321
328 329 329 330 327 324 324 323 321 321 320 319 318 320 320 320 320 317 315 317 318 319 322 323 325 327 327 327 328 327 324 330 337 335 333 332 330 329 327 325 323 321 320
325 327 327 326 326 325 324 323 322 321 320 320 320 320 319 318 317 318 315 316 316 320 320 321 323 324 325 325 322 320 321 328 334 333 332 332 331 330 328 324 321 320 319
312 315 322 322 321 322 322 322 323 320 320 319 320 320 320 321 320 318 318 317 314 317 317 316 319 321 323 323 321 316 318 324 329 331 331 330 329 328 325 322 320 318 317
307 309 313 320 321 322 322 321 321 321 322 321 320 321 321 321 320 320 318 316 313 314 313 316 314 317 319 319 319 314 318 319 322 326 326 327 326 324 321 319 318 316 315
305 305 307 310 312 313 316 320 321 320 320 321 321 321 320 321 322 321 321 319 316 311 312 313 313 314 316 318 316 315 315 315 318 319 321 320 318 317 316 315 314 313 312
301 302 302 304 305 308 310 312 313 315 318 321 321 320 321 321 321 321 320 320 319 316 312 314 313 307 309 310 311 311 312 312 315 316 317 314 313 313 313 312 311 310 309
298 298 299 300 300 302 304 306 307 309 310 312 315 318 319 320 319 319 319 318 317 316 312 305 303 303 304 306 307 308 309 310 311 314 315 312 311 311 311 310 309 308 307
295 295 295 297 298 299 301 301 301 302 303 305 308 311 313 315 315 316 316 315 315 316 313 306 300 300 302 304 304 304 304 306 310 312 312 310 309 308 308 308 307 306 304
292 293 294 293 294 296 298 299 300 299 300 301 301 303 306 309 311 314 314 314 314 313 312 304 299 299 298 300 298 298 299 300 301 307 311 309 308 307 307 307 305 304 301
290 290 291 292 293 294 295 295 296 297 297 298 299 300 302 304 305 306 309 311 311 310 309 306 300 297 298 297 299 298 295 295 296 298 302 305 307 306 306 306 304 301 298
289 289 289 290 290 291 293 294 294 294 294 295 297 298 299 299 299 302 303 305 307 308 306 304 297 296 294 294 296 295 296 294 294 295 296 298 302 304 304 305 302 299 297
287 287 287 287 288 289 292 294 294 292 293 293 292 295 297 298 299 300 301 303 304 304 304 304 301 300 299 300 299 297 293 291 291 294 293 295 300 298 299 300 301 299 297
286 286 286 286 286 287 290 293 293 292 291 291 292 293 293 295 297 297 299 300 301 303 305 306 303 302 300 300 298 296 294 297 295 293 295 294 295 296 296 295 298 298 297
285 285 285 285 285 285 289 291 291 291 290 290 291 291 292 293 294 296 297 297 298 299 301 303 305 305 304 300 298 298 297 294 289 291 295 293 292 293 293 292 297 298 297
283 283 284 284 283 284 288 289 289 289 288 289 290 291 290 292 294 295 294 294 295 297 299 300 301 303 302 301 301 295 291 292 287 288 289 289 286 287 287 288 290 296 296
283 284 283 283 283 283 285 287 288 288 287 288 289 289 290 290 291 294 293 293 291 293 295 295 295 298 301 300 299 299 294 292 288 285 288 288 284 285 285 285 287 288 293

GFSMA_sfc_thetae_102.txt.gz
Theta_e
337 339 342 342 344 346 341 337 338 338 340 339 335 331 331 331 331 331 333 330 334 338 342 343 342 341 340 340 340 340 339 337 335 335 332 330 333 332 331 332 331 330 329
336 338 337 339 341 342 341 340 338 338 335 338 336 335 329 328 328 329 330 330 329 333 337 341 342 342 342 342 341 341 341 340 337 336 332 330 330 329 329 329 329 329 330
332 334 336 338 340 343 342 341 341 340 340 335 334 334 331 327 325 324 327 328 328 325 330 336 339 342 342 342 342 342 342 341 339 337 333 330 329 327 326 325 325 326 327
330 332 333 334 337 340 341 341 340 337 336 330 329 330 331 327 324 323 323 325 326 327 328 331 337 340 342 341 342 342 341 341 340 337 333 330 327 327 325 324 324 324 324
331 331 332 333 335 337 337 337 336 336 333 333 329 330 326 325 324 323 323 323 325 327 329 328 329 331 335 340 341 342 341 341 340 337 333 330 327 326 325 325 324 324 323
331 332 331 332 333 333 334 333 332 332 333 332 328 326 324 325 323 323 322 322 325 327 328 330 331 329 327 334 339 341 341 341 340 337 333 330 328 327 326 326 325 323 326
330 331 331 331 332 331 331 332 333 328 328 332 328 326 321 325 322 322 322 321 322 325 327 329 331 333 332 330 334 340 340 340 340 338 334 330 328 327 327 326 325 326 326
332 331 331 330 331 332 331 330 331 327 327 329 324 323 318 321 321 323 323 321 322 324 327 329 330 332 333 333 331 334 338 340 339 338 335 331 329 328 327 327 325 327 325
331 332 331 331 330 333 333 331 331 326 323 325 327 321 313 311 317 320 319 321 323 325 326 328 330 331 332 334 333 331 332 335 338 339 337 333 330 328 328 327 326 326 325
328 330 332 332 334 334 332 331 328 326 324 320 322 323 322 322 313 311 322 324 325 323 326 328 329 330 332 333 329 326 327 329 336 339 339 335 331 329 329 328 326 326 325
323 328 330 331 332 330 331 328 324 324 324 323 320 319 319 318 319 316 314 319 321 325 327 328 328 330 329 329 330 327 324 329 334 337 338 337 333 331 330 329 326 326 324
315 315 318 329 328 328 328 326 325 324 321 320 319 318 317 315 314 315 314 316 317 321 322 324 324 326 328 328 325 322 323 327 333 336 338 337 334 332 331 330 327 324 323
308 308 312 313 323 326 325 324 322 321 321 320 320 319 319 318 318 317 315 314 314 319 321 322 323 325 324 327 328 319 319 324 330 336 336 337 334 332 331 330 327 324 322
305 306 308 309 311 312 316 321 322 321 321 320 319 318 317 318 319 318 316 315 312 314 318 319 320 320 320 322 322 316 322 319 324 332 335 334 329 327 327 327 324 322 320
303 303 304 304 305 307 310 312 314 315 319 319 319 319 319 319 320 320 319 318 315 309 310 316 316 316 318 319 319 320 319 318 321 325 326 324 321 321 322 322 321 319 318
300 302 301 302 303 304 305 307 308 309 311 313 315 318 319 319 320 320 320 319 319 315 311 316 317 311 313 314 317 318 320 314 318 321 320 317 317 318 318 318 317 316 314
296 295 296 298 301 301 303 303 303 303 303 305 307 309 311 316 318 320 320 320 318 318 313 315 308 307 306 308 308 312 312 314 316 317 318 316 315 314 314 314 314 313 311
293 294 295 295 295 297 299 300 300 302 301 301 302 303 305 307 309 313 315 314 315 315 313 311 307 302 303 306 307 307 306 308 311 313 315 314 313 312 312 312 311 310 309
293 292 293 292 293 294 295 295 295 296 297 298 300 301 302 304 305 306 307 308 313 313 314 312 309 303 303 301 300 300 301 302 304 309 313 312 311 311 311 310 309 308 306
291 291 292 292 292 293 294 295 295 295 295 295 296 298 300 301 301 302 303 305 305 306 310 310 307 300 300 299 301 300 296 298 300 301 308 309 309 309 309 308 307 305 303
291 291 290 290 291 291 290 293 294 294 293 293 294 295 297 297 298 300 301 302 302 301 303 306 302 299 297 295 298 300 300 299 297 297 299 302 305 305 305 307 305 303 301
290 290 289 289 289 289 290 292 293 292 292 291 291 293 294 295 296 296 298 299 300 300 298 299 303 301 301 300 303 299 297 293 292 296 297 297 301 301 303 305 305 303 300
289 289 288 288 288 288 289 290 291 291 291 291 291 291 291 293 295 295 296 297 299 301 301 300 298 300 303 304 305 298 298 298 299 295 298 294 297 297 301 302 304 301 300
288 287 287 287 287 287 288 289 289 289 290 290 291 291 291 291 292 293 294 294 295 296 298 301 302 301 302 306 305 303 301 300 293 294 299 292 294 294 298 298 302 301 300
287 287 287 287 286 286 287 288 288 288 288 288 289 290 291 290 291 291 291 292 292 294 297 298 299 300 301 302 304 302 294 292 289 288 293 290 289 289 293 294 297 299 299
286 286 286 286 286 286 287 287 287 287 287 287 289 289 290 290 290 291 290 289 288 290 293 294 295 296 300 301 302 301 298 294 294 286 290 287 286 287 286 288 289 292 296

GFSMA_sfc_thetae_105.txt.gz
Theta_e
340 341 339 341 345 344 344 340 339 338 340 338 335 330 332 331 331 332 333 331 336 339 340 343 343 342 340 340 339 339 338 337 336 334 334 331 332 332 332 332 332 331 330
335 336 336 338 339 342 342 339 337 337 335 337 337 334 329 330 330 330 330 332 333 336 339 340 343 342 342 341 341 340 342 340 339 337 335 331 332 332 330 330 331 330 329
334 334 335 336 336 337 338 341 338 337 339 337 335 336 331 330 325 327 328 329 331 330 335 338 338 342 343 342 342 341 342 342 341 339 337 333 330 329 329 328 327 326 327
334 332 332 333 335 337 337 337 339 338 338 339 336 336 334 331 326 324 323 325 327 327 327 332 336 339 342 342 341 342 342 341 341 341 338 335 331 329 328 327 326 325 325
333 330 330 331 332 334 335 337 338 337 336 336 336 336 334 331 329 324 321 322 323 325 326 328 329 331 336 340 340 341 342 342 341 341 340 336 331 329 328 326 326 325 324
330 330 330 330 331 332 332 333 333 336 335 334 331 331 332 332 330 325 321 320 321 323 325 327 330 328 328 334 337 339 341 341 341 340 340 336 332 329 328 327 326 325 325
330 331 331 330 331 330 330 331 329 331 331 333 328 327 328 329 327 323 322 321 321 323 324 325 327 330 331 331 333 337 339 340 341 340 339 337 333 330 328 328 327 325 326
331 331 331 330 331 330 329 329 330 327 330 331 326 323 317 321 325 326 325 322 320 321 321 323 326 327 329 331 331 332 337 338 340 340 339 337 334 331 329 328 328 326 327
329 329 330 330 330 331 329 330 331 329 325 328 329 323 316 313 319 324 323 322 321 321 321 322 324 325 327 330 331 330 329 334 339 340 340 339 336 332 330 329 329 327 327
323 323 323 326 329 331 330 330 331 330 328 324 327 327 326 321 313 313 323 322 322 321 320 323 324 325 328 330 328 326 326 328 336 339 339 340 338 334 332 330 330 328 328
317 315 314 317 323 328 329 329 329 329 329 326 324 322 323 323 319 315 311 317 322 320 321 323 324 327 328 330 331 327 324 328 335 337 338 338 339 337 334 332 330 328 328
311 310 310 313 313 317 327 328 329 327 326 325 324 322 319 317 316 314 313 314 315 319 322 323 325 327 327 327 325 322 323 327 332 335 337 338 338 337 335 333 332 330 328
305 305 306 307 308 309 312 316 326 326 325 324 323 321 320 319 319 317 314 312 312 315 317 320 323 324 324 326 326 319 319 324 329 333 336 337 336 335 335 333 333 330 328
303 304 304 305 306 306 307 310 311 314 320 320 319 319 319 319 319 318 315 313 310 311 313 315 320 322 323 323 323 317 322 320 324 329 332 334 331 330 330 331 332 331 327
300 302 303 303 303 304 305 305 306 305 309 310 314 316 318 318 318 318 317 316 312 306 309 313 315 320 321 322 321 322 321 319 321 323 324 325 324 323 326 327 327 326 324
297 297 297 298 300 302 303 304 303 304 304 305 306 307 310 311 317 319 318 317 316 312 308 314 316 318 317 316 318 318 319 314 317 320 320 320 321 321 322 323 322 322 320
293 293 294 294 295 296 297 297 299 300 301 302 303 303 305 307 308 310 313 317 316 316 311 315 315 312 310 312 310 312 314 316 318 316 318 319 320 320 319 319 318 318 317
293 293 293 293 293 294 295 295 294 295 295 296 297 300 302 304 305 306 306 306 309 312 314 311 313 306 306 307 308 308 308 310 313 314 316 318 319 317 317 316 315 314 313
292 292 292 291 291 292 292 293 294 294 294 295 295 296 297 299 300 301 302 303 305 306 306 309 309 306 304 302 301 302 303 305 306 309 315 315 315 314 314 313 312 311 310
291 291 291 291 290 291 290 291 292 293 293 293 294 294 295 296 295 297 299 301 302 302 303 304 304 303 301 300 301 299 298 299 302 305 310 312 313 312 312 311 310 308 307
290 290 290 290 290 290 289 289 290 291 291 292 292 292 294 295 295 297 295 297 297 298 299 299 300 300 298 296 297 300 300 299 300 299 305 307 308 308 309 309 306 305 305
290 289 289 289 288 288 291 291 290 289 289 290 290 291 292 293 294 295 296 297 296 295 296 296 297 297 301 299 301 299 298 293 292 297 299 302 306 303 305 306 306 305 304
288 288 288 288 287 288 290 290 290 288 288 289 290 290 290 291 293 291 293 294 296 297 297 296 295 296 298 300 303 299 297 295 299 297 300 299 299 301 303 304 306 304 303
287 287 287 287 287 287 289 289 289 287 288 288 289 289 289 289 291 290 290 289 290 293 294 295 295 296 297 298 299 300 301 300 297 294 300 296 295 296 300 302 305 304 302
287 287 287 287 286 287 289 289 288 287 287 287 288 289 289 289 291 291 289 288 288 289 293 296 297 297 298 299 300 298 295 295 291 289 295 290 290 290 293 294 302 303 302
286 286 286 286 287 286 288 288 287 286 285 286 287 288 291 289 290 290 288 287 286 287 289 289 290 292 294 295 299 298 296 293 294 287 290 292 287 287 286 288 293 299 299